GFSMA_sfc_dewp_045.txt.gz
Dewpoint
56 57 57 55 55 54 51 53 50 48 46 43 40 37 38 37 43 45 50 57 57 57 57 57 56 55 55 51 49 48 46 46 45 43 43 43 43 44 44 42 42 43 42
57 57 57 56 55 55 54 51 51 48 47 42 37 36 36 38 38 45 45 51 55 57 57 56 56 54 55 51 47 46 45 42 42 41 42 42 43 45 45 44 43 44 42
59 58 58 58 56 54 54 52 50 47 44 41 37 36 36 37 37 37 45 50 53 56 57 59 56 54 54 51 48 48 42 41 39 39 41 43 43 42 42 42 42 42 42
60 59 58 56 56 53 51 50 47 45 44 41 38 36 37 37 34 35 44 49 49 49 55 57 57 54 52 49 47 44 41 38 37 38 39 39 39 39 39 40 40 40 40
60 58 59 58 54 53 53 51 49 46 41 40 38 39 37 38 35 35 38 41 47 47 48 53 52 51 49 47 46 42 38 35 35 36 37 37 37 38 39 39 40 40 40
59 60 60 58 54 53 53 51 46 44 42 40 38 36 39 39 37 37 36 38 40 47 46 46 47 47 50 47 43 38 35 34 34 35 33 35 37 39 39 39 39 39 39
59 60 59 56 54 53 51 49 46 40 39 42 40 42 42 40 37 37 38 36 36 36 44 44 44 42 44 45 40 37 36 35 34 32 33 35 36 37 39 38 39 39 39
60 60 58 56 55 54 51 49 45 43 41 43 41 42 40 38 40 38 38 37 35 35 34 35 35 38 37 37 36 38 39 37 33 33 34 33 34 37 38 38 38 38 38
60 59 58 57 56 54 52 48 48 44 41 44 42 41 37 36 38 39 39 38 35 36 35 35 35 33 35 36 38 41 43 37 36 37 34 34 35 37 37 37 37 37 37
59 59 57 57 57 56 52 49 49 47 47 46 45 43 42 38 34 31 37 38 37 36 36 36 35 34 33 35 39 41 42 41 39 37 36 36 36 36 36 36 36 36 37
58 58 57 56 55 54 52 51 50 49 48 46 44 44 43 39 38 36 33 34 38 38 37 38 37 36 34 35 37 40 42 42 40 38 38 36 36 35 35 35 36 36 36
57 58 56 54 54 54 52 52 49 48 48 48 44 43 41 40 39 38 35 35 34 34 37 38 39 37 36 35 38 42 43 41 39 38 36 36 35 34 34 35 34 34 35
56 56 56 54 55 53 52 49 49 49 48 46 44 44 41 39 38 37 35 31 31 31 32 35 36 35 33 35 37 42 43 40 39 37 37 35 33 33 32 32 31 32 33
57 55 55 54 55 53 51 48 50 49 48 47 44 43 40 40 39 37 33 33 31 31 31 30 35 37 35 33 39 43 39 40 39 39 38 34 33 32 31 30 29 30 31
55 55 54 52 51 51 48 48 49 48 46 44 43 41 40 42 39 38 37 35 33 29 29 30 30 32 31 34 37 39 35 39 39 39 38 37 33 33 31 29 28 28 29
53 53 52 51 49 48 47 47 46 46 44 44 42 40 41 42 43 44 42 38 35 33 30 31 30 30 30 28 34 35 32 38 40 39 37 37 37 35 32 29 28 28 28
51 51 50 48 47 46 47 46 46 44 42 42 43 43 44 44 44 43 42 39 35 33 31 30 30 30 28 29 29 33 32 32 31 37 37 37 37 36 35 33 31 29 28
51 50 49 48 47 46 45 45 43 42 43 43 43 43 43 43 42 41 40 37 35 34 32 30 30 30 30 30 30 28 28 27 28 33 36 36 35 35 35 34 33 33 31
51 50 49 48 46 46 44 44 41 42 42 43 43 43 42 41 39 39 37 36 35 35 35 33 33 31 31 31 30 28 27 28 24 31 35 34 35 35 36 35 35 34 34
50 50 48 47 46 44 42 41 42 42 42 42 43 42 42 41 40 38 37 37 36 35 35 34 33 33 32 31 30 28 27 28 26 22 27 25 29 31 34 35 35 35 34
50 47 45 44 42 40 41 42 42 41 40 40 41 41 41 40 39 39 39 38 35 34 33 33 32 31 30 29 28 29 28 28 25 26 21 20 21 22 22 27 28 31 31
45 43 41 41 40 40 39 40 40 40 39 39 39 39 39 38 38 38 38 37 37 35 33 33 32 31 31 30 31 29 29 27 23 24 21 18 22 20 21 22 27 30 31
40 40 40 40 40 40 39 39 38 39 39 39 39 38 38 37 37 35 33 33 32 33 34 32 31 30 31 32 31 30 30 28 27 27 25 21 21 19 22 19 29 31 30
39 37 38 39 39 38 38 38 36 38 38 39 38 37 34 32 32 32 29 27 27 28 29 30 31 32 32 33 33 33 32 32 31 28 24 21 20 20 21 23 27 30 29
38 38 38 37 37 37 37 37 38 38 36 32 32 30 30 29 32 30 26 24 20 17 18 24 26 28 30 31 32 33 32 30 30 27 23 20 20 20 21 21 22 27 29
38 39 39 40 39 38 37 37 35 30 28 26 26 27 29 28 29 28 24 23 21 21 22 24 26 26 28 29 32 32 31 31 30 26 26 24 21 20 17 19 21 22 22

GFSMA_sfc_dewp_048.txt.gz
Dewpoint
55 56 54 53 52 52 50 52 50 47 44 40 37 38 39 46 48 50 53 58 59 59 56 56 56 56 54 51 51 49 47 46 44 44 44 43 44 46 45 43 43 44 43
55 55 54 53 53 53 51 51 49 46 44 38 36 36 39 41 43 44 47 51 55 58 58 56 56 56 55 51 49 48 46 44 42 42 42 43 45 44 43 43 43 43 43
56 56 56 55 54 55 53 51 50 48 45 39 35 36 37 38 41 43 45 50 53 56 55 59 57 55 55 52 48 48 44 43 40 40 41 43 41 41 41 41 41 41 41
59 58 57 57 56 55 53 51 49 44 43 39 37 35 37 36 35 40 46 49 50 51 57 59 59 56 55 52 49 49 44 42 40 39 40 39 38 38 39 40 41 41 40
59 59 58 58 55 53 52 50 48 46 43 40 37 37 37 37 35 38 44 47 48 48 51 56 56 55 55 52 50 48 45 41 38 38 38 36 36 38 39 39 39 40 39
57 59 59 58 55 52 52 50 48 46 42 40 37 37 37 38 36 38 42 42 47 47 48 48 49 49 52 51 49 47 43 39 38 38 36 34 36 36 37 38 39 39 39
59 59 58 58 55 53 52 51 46 41 40 41 40 41 42 41 37 36 37 38 42 46 46 46 46 44 48 52 48 45 42 39 39 38 36 37 36 34 35 37 38 38 38
57 59 59 58 55 53 51 50 45 42 39 42 39 42 39 40 39 38 37 37 36 40 44 44 44 42 42 43 41 44 41 41 40 39 38 38 36 35 36 37 37 37 37
55 59 59 57 55 54 52 52 46 43 43 45 43 42 39 38 38 38 39 38 36 36 36 38 39 38 39 39 42 44 46 45 41 40 41 39 37 37 37 36 37 37 37
58 59 59 57 56 55 53 52 48 45 45 44 44 44 42 38 34 32 37 39 37 35 35 36 36 35 36 36 39 42 45 45 43 41 41 40 40 38 37 37 36 37 37
59 59 58 57 56 57 55 51 49 48 48 48 45 45 43 40 39 36 34 34 37 38 37 36 37 36 34 35 36 40 45 43 43 42 41 41 40 39 38 36 37 36 36
59 58 58 58 57 57 55 52 50 49 49 47 46 45 44 43 40 37 35 35 34 35 37 38 38 37 37 36 37 41 44 43 42 43 41 41 40 39 38 37 36 36 35
57 58 57 57 56 54 53 52 51 49 49 48 48 47 46 45 39 39 37 35 32 32 33 34 35 38 37 37 37 43 44 43 42 43 42 41 39 38 37 36 35 34 33
56 58 57 55 54 54 52 50 50 50 48 48 46 46 45 41 40 38 35 36 32 32 32 32 34 35 35 35 36 43 41 43 42 41 42 41 39 37 36 34 34 32 31
56 55 56 54 53 53 51 48 49 48 48 47 46 44 41 43 41 40 39 37 34 34 33 31 31 32 33 33 36 40 40 43 42 41 40 41 41 37 36 34 34 31 29
55 54 54 53 52 51 50 48 48 48 47 46 44 41 43 44 45 44 44 44 41 37 33 31 31 31 31 29 32 39 39 40 42 40 39 39 40 39 38 36 34 31 30
55 54 53 52 51 50 49 47 47 46 45 43 43 44 44 44 44 44 43 42 40 38 36 36 32 31 29 29 29 35 37 36 36 41 39 39 38 37 37 38 36 34 31
54 54 52 50 50 48 48 46 46 45 43 43 44 44 43 44 43 43 41 40 39 37 35 33 32 31 30 30 30 29 31 31 32 35 40 39 38 37 37 36 36 35 34
53 53 52 50 48 48 46 46 45 44 43 43 43 43 43 43 40 40 38 37 36 36 36 34 34 34 32 32 31 31 30 30 29 33 35 38 38 37 36 35 36 36 35
52 51 51 50 49 47 46 44 43 43 43 43 43 43 42 41 41 39 38 36 37 34 35 35 35 34 33 34 31 32 32 30 29 27 31 33 35 36 37 36 36 36 36
52 50 49 48 46 45 43 42 42 42 42 42 42 41 42 41 40 38 37 36 35 34 33 33 33 32 31 30 28 30 30 31 31 29 29 29 30 29 29 34 32 35 35
49 47 47 44 42 41 39 40 41 41 41 40 40 41 40 40 39 37 34 34 33 30 28 28 28 29 30 29 31 31 31 31 30 30 26 25 26 24 23 27 28 31 31
46 43 42 42 41 41 39 39 38 39 39 39 39 39 38 36 33 32 31 30 30 30 31 29 27 26 28 27 30 30 30 32 31 32 27 28 26 26 27 25 30 31 32
44 42 41 41 41 40 38 38 37 38 38 38 37 34 32 29 31 28 26 24 22 21 19 18 20 22 23 23 25 25 27 27 28 31 31 29 30 28 28 24 28 31 32
39 38 38 38 38 38 37 36 37 38 34 32 29 29 28 27 28 27 24 22 21 22 24 27 28 29 30 30 30 28 26 25 24 24 29 30 29 27 27 26 23 30 30
37 37 37 36 36 37 37 37 35 32 28 25 25 25 26 26 25 23 22 22 23 24 24 23 25 27 28 28 30 28 28 27 26 26 27 28 26 26 25 25 23 22 21

GFSMA_sfc_dewp_054.txt.gz
Dewpoint
56 56 56 54 52 51 49 47 44 44 45 47 50 53 54 55 55 56 57 59 59 58 58 58 57 56 54 53 52 51 49 48 47 47 45 47 45 45 44 43 43 43 43
56 55 54 52 50 50 50 47 43 40 39 41 45 48 50 52 52 54 54 56 58 58 58 58 57 56 56 54 51 50 48 46 46 45 45 46 43 42 42 42 42 42 42
54 54 52 52 50 50 50 47 45 41 38 38 40 44 45 45 45 47 49 51 53 56 58 59 58 58 56 54 52 50 47 47 45 44 46 44 42 41 40 40 40 40 40
55 54 52 52 51 51 51 48 46 43 39 38 38 39 41 42 43 43 45 48 49 50 55 58 59 59 57 54 52 51 49 47 44 44 45 43 41 40 40 38 38 37 38
55 53 54 54 53 52 52 49 47 45 40 38 37 38 39 39 40 42 44 47 48 50 51 55 58 58 59 56 54 52 50 48 45 44 45 43 40 40 39 36 35 36 38
56 56 56 55 54 53 52 50 47 46 44 40 35 36 38 38 38 40 44 46 47 48 51 54 57 56 57 58 56 53 52 51 48 45 45 43 40 40 38 35 34 36 37
59 57 57 56 55 53 53 50 47 45 43 42 39 40 40 39 39 38 41 45 47 47 49 51 52 52 53 57 56 53 51 49 49 47 45 44 42 41 38 36 36 35 35
58 58 57 56 55 54 52 50 47 44 44 42 39 40 38 40 42 41 38 41 43 45 46 48 49 49 48 50 52 54 49 49 49 47 45 45 43 42 41 39 38 37 36
54 56 57 56 55 53 52 51 48 45 43 43 43 41 38 38 39 40 40 38 40 40 44 46 47 47 46 46 49 52 53 52 49 46 46 45 44 44 43 42 41 39 38
55 55 56 57 56 55 53 52 51 48 46 45 46 45 43 42 38 37 38 40 39 38 38 43 45 45 45 44 45 47 48 49 50 48 45 46 46 45 44 43 43 42 40
54 55 54 55 55 55 54 53 52 50 50 49 47 46 44 42 42 41 39 39 39 40 39 38 40 42 41 41 41 42 46 47 47 49 47 45 45 45 46 45 44 43 42
52 54 55 55 55 55 54 53 52 52 51 50 50 49 45 43 42 40 39 39 37 38 40 40 39 39 39 38 38 42 43 44 46 47 48 48 46 44 45 46 45 45 44
51 51 53 54 54 55 55 55 54 53 52 52 51 49 48 46 45 42 41 39 38 37 35 36 38 40 39 40 39 42 43 43 43 45 46 47 47 47 46 45 45 45 44
51 52 54 55 54 55 55 56 56 54 54 53 52 50 47 47 44 41 41 40 35 34 33 34 35 37 37 37 38 41 41 42 43 44 45 45 46 46 46 45 45 44 43
53 52 54 56 56 56 56 56 56 56 54 53 52 49 47 47 45 43 40 39 39 36 35 36 37 36 35 36 35 38 37 38 41 42 43 44 45 45 45 45 45 44 44
53 52 53 54 55 56 56 56 56 54 52 50 50 48 46 45 44 42 41 42 41 40 38 39 36 35 35 33 36 37 35 38 40 41 42 43 43 44 44 44 44 44 44
54 54 54 54 55 55 55 54 54 52 51 49 48 47 46 44 43 44 44 43 42 41 39 39 38 36 35 35 34 35 35 35 36 39 40 41 42 42 42 42 42 43 43
56 56 56 56 55 54 53 53 52 50 50 48 47 46 44 44 44 44 43 42 41 40 38 35 36 35 34 35 35 34 34 33 34 35 38 39 40 40 40 41 41 40 41
55 56 56 55 56 55 53 52 52 51 49 47 46 45 44 44 43 43 42 40 38 37 37 36 36 36 34 34 34 34 34 34 33 36 37 38 38 38 38 39 40 40 40
55 56 56 56 55 54 53 52 51 50 48 46 46 45 44 43 43 41 39 39 38 36 36 36 34 33 33 33 31 30 28 31 29 26 31 34 34 36 37 36 37 38 39
56 56 56 56 54 53 52 51 50 48 47 45 45 44 44 43 41 40 39 37 36 35 33 32 30 29 27 27 26 28 25 24 25 26 26 29 31 30 29 31 32 34 36
57 57 56 55 52 51 45 44 47 46 45 45 43 43 42 41 39 38 37 35 33 31 28 27 26 23 21 23 25 24 24 23 20 26 26 24 27 26 27 28 30 33 33
56 54 52 52 51 51 44 41 42 44 43 43 42 41 40 36 35 33 32 30 28 28 27 24 19 20 21 21 23 23 23 23 22 24 25 23 26 25 26 25 30 32 33
51 50 47 48 46 42 40 39 40 42 41 41 40 38 34 31 30 28 25 22 20 19 21 20 21 22 24 25 25 26 25 25 24 24 26 23 24 24 26 27 30 32 34
46 45 44 44 43 40 39 38 39 38 35 33 32 32 30 29 30 29 21 19 20 23 25 23 21 22 21 21 23 24 23 22 19 16 21 23 22 25 26 27 30 31 32
42 41 40 41 39 38 37 37 36 33 30 28 27 28 29 26 25 24 23 23 23 22 19 18 18 18 19 20 20 19 18 18 17 17 24 20 19 22 23 26 25 28 30

GFSMA_sfc_dewp_057.txt.gz
Dewpoint
57 56 54 52 50 51 52 53 54 54 54 54 54 54 55 56 56 54 54 59 59 59 58 58 57 55 54 53 52 51 50 49 48 48 48 47 46 45 44 44 44 43 43
58 54 53 52 51 49 48 50 52 52 52 53 54 54 54 55 56 57 55 56 58 59 59 58 58 57 56 54 53 51 49 48 48 47 48 46 45 43 43 43 42 41 41
58 56 52 52 52 51 49 47 49 49 49 49 51 52 53 54 54 56 55 54 55 58 59 60 59 58 57 55 53 51 49 47 46 45 48 45 43 42 41 40 39 39 39
58 57 53 52 53 51 48 45 43 41 42 43 45 46 47 48 49 50 52 53 54 53 56 59 60 60 57 56 54 52 49 48 46 45 47 44 42 41 40 38 36 36 37
56 55 54 55 54 52 51 48 46 44 42 41 41 43 44 43 45 42 45 48 50 52 52 56 59 59 59 57 54 53 53 50 48 46 45 45 42 41 40 37 36 36 36
55 57 56 56 53 53 52 50 49 48 44 41 33 38 42 42 42 43 44 44 46 48 48 52 55 56 58 59 56 55 53 52 51 48 46 46 44 43 42 39 37 36 36
56 56 57 56 54 53 54 53 51 49 46 44 40 40 40 42 43 40 42 44 47 47 49 49 50 52 54 59 59 55 53 51 51 51 48 47 46 44 44 41 40 38 38
55 57 57 58 56 56 56 55 53 51 48 45 42 42 42 41 41 42 41 42 47 47 47 49 50 52 52 50 53 57 53 51 49 49 50 48 47 46 45 44 42 41 40
58 57 58 59 59 58 56 57 55 52 49 46 47 46 43 43 43 44 45 41 43 45 47 48 48 51 52 50 52 53 54 53 51 48 48 48 47 47 46 46 44 43 42
56 58 58 59 59 58 57 57 56 54 53 50 47 46 48 45 42 42 42 44 43 42 45 44 45 47 49 49 50 50 49 50 52 52 48 47 47 48 48 47 46 45 45
55 55 56 57 59 59 59 57 56 55 54 53 50 49 47 45 47 45 44 41 41 42 42 43 43 45 47 47 47 47 47 47 48 49 50 49 47 46 47 48 48 47 47
54 55 54 55 57 59 59 59 58 56 55 54 52 50 48 46 45 44 45 45 42 43 42 43 44 43 43 43 42 44 45 45 45 46 46 47 48 48 47 46 46 48 48
52 54 55 56 57 57 57 58 58 58 57 56 55 52 50 49 50 46 45 44 43 43 40 39 41 42 41 42 41 43 44 44 44 45 45 45 46 46 46 46 46 45 45
51 54 55 55 56 56 56 57 58 58 58 58 57 54 53 53 53 49 46 45 40 40 39 39 38 39 40 39 41 42 41 42 42 43 44 45 45 45 46 47 48 48 47
53 54 54 55 55 55 56 56 57 57 58 57 56 56 54 54 52 49 47 46 46 43 38 38 37 40 40 39 38 39 42 42 40 41 42 43 43 43 44 45 46 47 47
54 54 54 54 54 55 55 56 57 58 57 57 56 55 54 53 51 49 45 47 47 46 44 41 38 38 39 36 39 40 40 38 39 40 40 41 42 42 43 44 44 45 45
54 53 53 53 54 55 56 57 57 57 56 56 56 55 55 54 50 47 46 44 43 43 42 40 40 39 40 39 38 39 39 39 38 39 39 40 40 41 41 41 41 42 42
55 54 54 54 55 56 56 57 56 56 55 54 54 53 53 50 49 47 44 43 43 43 41 40 40 37 37 38 38 39 36 32 35 35 38 39 39 39 39 39 39 39 39
54 55 56 56 55 56 55 55 55 55 54 54 53 51 51 49 47 46 44 44 43 40 39 37 36 37 37 37 36 35 34 33 27 29 30 31 34 36 35 35 36 37 37
53 54 55 56 57 56 56 55 54 54 54 52 52 52 50 47 46 45 44 42 40 40 37 38 36 36 36 35 33 29 25 23 21 18 24 28 31 31 33 35 34 34 34
53 54 55 55 56 56 56 56 55 54 52 51 50 49 48 46 43 43 42 40 39 38 36 35 33 32 32 30 26 22 20 20 21 22 23 24 23 23 25 28 28 30 31
55 55 56 55 56 56 49 46 51 53 52 50 47 46 45 44 41 39 39 38 38 36 33 31 30 30 28 24 21 21 20 19 14 23 22 20 22 22 23 24 28 30 32
55 56 56 56 56 56 45 45 44 52 49 47 45 44 42 40 37 36 34 33 31 30 30 30 29 22 21 21 23 22 20 21 20 21 22 19 19 19 20 18 28 30 32
56 55 55 55 55 53 44 44 42 46 44 43 42 41 38 36 34 32 28 24 23 22 20 19 21 22 24 23 23 22 23 23 21 19 18 17 16 18 20 23 28 30 32
51 48 48 47 46 42 41 39 41 41 39 37 37 36 34 32 32 31 28 26 25 24 26 24 22 20 20 20 21 21 19 16 19 10 14 17 18 20 22 24 28 31 31
44 43 41 42 39 39 38 38 38 36 33 32 31 31 32 31 31 30 28 26 23 22 19 18 17 17 19 19 20 17 15 17 17 16 20 19 15 19 20 19 25 26 29

GFSMA_sfc_dewp_060.txt.gz
Dewpoint
58 55 56 57 56 56 56 55 55 55 53 51 51 52 52 52 53 51 53 59 60 59 57 57 55 55 54 53 52 52 50 50 49 50 48 47 46 45 45 45 44 44 43
57 53 54 52 52 54 55 53 53 52 50 50 51 51 51 52 53 54 51 55 59 60 60 58 57 56 55 55 53 52 51 50 49 50 48 46 44 44 43 43 42 42 41
58 56 52 52 50 51 52 51 52 51 49 48 50 50 50 52 52 53 52 52 55 59 59 60 59 57 57 56 54 52 50 49 49 48 49 46 44 43 42 41 39 39 39
57 56 53 52 50 50 49 50 49 49 47 46 48 47 48 49 51 52 51 51 51 50 57 59 60 59 58 56 55 53 51 49 48 48 49 47 44 43 41 39 37 36 37
55 54 52 55 53 50 49 48 47 46 45 43 43 44 46 45 48 45 48 51 52 50 50 58 59 59 59 58 56 55 53 52 50 49 49 48 45 44 42 39 37 36 37
55 54 51 55 53 50 50 49 49 47 45 42 35 40 43 44 44 45 45 44 46 49 49 50 54 54 59 59 58 56 55 55 52 50 49 49 47 45 44 42 39 38 38
55 55 53 54 54 52 52 54 52 51 47 45 40 41 41 45 45 43 44 43 45 46 47 46 47 48 54 59 59 57 56 55 55 53 51 49 49 47 46 45 43 41 41
55 56 57 54 54 53 55 55 55 51 48 47 45 46 44 43 42 43 42 43 47 45 45 48 48 49 50 51 55 58 57 55 53 53 54 52 50 49 48 47 46 44 43
56 55 57 55 56 55 55 57 56 54 51 51 51 49 47 45 47 46 46 44 45 46 46 47 49 48 49 49 51 55 56 56 55 51 50 53 52 50 49 49 48 47 46
57 55 56 56 58 57 56 57 57 56 55 53 52 50 52 51 46 47 45 47 45 45 48 47 45 46 47 48 50 50 52 53 54 54 51 48 47 48 50 50 50 48 48
57 57 57 58 59 60 60 59 59 58 56 56 53 51 50 50 49 48 49 49 47 45 44 46 45 46 46 48 47 49 49 49 49 50 51 51 50 50 48 49 49 50 50
57 58 57 59 59 58 57 57 58 59 58 57 55 54 52 50 48 48 48 50 51 47 46 45 47 47 46 45 48 48 47 46 46 47 47 47 46 47 47 48 49 48 48
55 56 57 58 56 56 56 55 57 58 59 57 57 55 54 53 52 51 50 49 50 50 50 48 48 47 44 46 45 45 45 44 44 44 44 45 45 46 46 46 47 47 48
53 55 55 55 54 54 55 56 56 55 57 57 58 58 56 56 55 54 52 49 47 49 47 47 45 45 45 44 45 44 42 43 43 43 43 43 44 44 44 45 45 45 45
52 53 54 55 55 54 55 55 56 55 57 58 57 57 57 57 57 56 54 52 49 47 47 46 44 44 43 43 43 42 43 43 41 40 41 42 43 43 43 43 43 44 44
54 53 53 54 54 54 54 54 56 56 56 57 56 56 57 56 58 57 54 52 51 50 47 48 44 44 43 38 40 43 44 40 41 40 40 40 41 41 41 41 41 41 41
55 54 54 53 52 53 53 54 54 54 54 55 57 58 57 56 56 55 54 52 50 48 46 47 42 43 39 42 41 41 42 41 41 41 39 39 39 39 40 40 39 39 38
56 55 55 55 54 54 55 54 55 53 54 55 56 57 56 55 56 54 51 49 49 49 47 45 41 42 42 41 41 41 39 37 37 39 37 38 38 38 38 38 39 38 36
55 54 54 55 55 55 54 55 54 55 56 56 56 56 56 54 53 52 50 50 49 45 46 42 43 39 39 40 39 39 39 39 33 35 31 32 33 34 36 35 35 36 36
53 53 54 54 55 54 53 54 54 56 56 56 54 55 55 54 53 52 50 49 46 43 44 41 39 40 39 38 38 36 35 34 28 17 24 26 30 30 32 34 35 34 33
54 53 54 54 55 54 54 56 55 56 55 55 56 54 54 52 49 50 48 46 44 41 41 39 37 37 36 35 34 34 29 26 23 23 21 24 23 22 24 30 30 32 33
53 53 53 53 54 54 48 46 52 57 56 55 54 53 53 47 46 43 42 41 42 41 38 37 35 34 33 33 33 29 25 21 17 20 24 21 22 20 21 23 29 30 30
54 53 54 54 55 56 47 45 45 56 55 55 54 52 48 46 44 41 37 35 34 35 36 36 33 33 32 30 27 25 22 21 20 20 22 21 21 20 20 13 29 30 30
54 55 55 55 55 55 46 45 44 53 55 53 50 47 45 41 40 37 34 31 31 31 30 26 29 27 26 25 24 22 23 23 22 20 20 17 18 18 20 20 27 29 30
55 56 55 56 56 56 44 43 43 45 42 40 41 40 39 36 35 35 30 29 27 28 29 27 25 24 22 21 21 21 21 19 22 15 14 16 20 20 20 22 26 31 32
54 49 43 43 40 43 39 41 43 40 36 34 34 35 34 34 33 33 32 31 28 26 21 20 19 19 18 20 20 19 15 18 18 17 20 19 17 16 19 19 22 25 27

GFSMA_sfc_dewp_063.txt.gz
Dewpoint
61 60 62 61 57 57 57 54 53 51 50 50 52 53 52 52 53 52 55 60 59 58 56 56 56 55 54 53 52 52 51 51 51 49 48 47 46 46 46 45 44 43 42
60 60 61 60 57 57 55 53 52 52 49 49 51 52 52 52 52 53 53 56 59 60 59 57 56 56 55 54 53 52 52 50 51 49 48 46 45 45 44 43 42 41 41
60 59 57 58 57 56 57 54 53 52 48 48 50 50 51 53 52 53 52 53 56 59 60 59 58 57 56 55 54 53 52 51 50 51 48 46 45 44 43 42 40 39 39
58 59 55 54 54 55 53 51 50 49 48 47 49 49 49 51 52 53 52 52 52 53 58 60 60 59 58 57 56 54 52 51 51 50 50 48 46 44 43 41 39 38 37
57 57 54 54 55 53 54 52 52 51 48 46 46 47 48 48 51 49 51 52 54 52 53 58 59 59 59 58 57 56 54 52 51 50 51 50 47 46 44 43 40 38 37
56 56 55 56 52 52 52 52 52 49 48 45 40 43 47 46 47 47 48 48 50 52 52 55 57 57 59 59 58 57 56 55 53 52 51 52 50 47 46 45 42 41 40
54 55 54 57 57 53 53 56 51 50 46 46 40 42 44 46 47 45 46 46 47 48 51 50 53 52 56 59 60 58 57 56 56 55 53 52 52 50 48 48 46 44 42
54 55 56 56 56 54 56 56 56 50 48 47 41 42 43 44 45 46 45 46 51 46 46 50 50 52 52 56 57 59 58 57 56 57 55 53 52 51 51 49 48 47 45
53 56 58 57 57 57 57 58 57 55 50 50 51 48 45 43 47 47 50 47 50 49 48 48 49 49 50 50 55 56 57 57 58 57 56 56 55 53 52 51 50 49 49
56 56 57 58 58 57 58 59 57 57 56 53 52 50 54 53 51 49 47 50 50 48 50 50 49 48 49 49 52 52 54 54 55 57 56 55 54 54 54 53 52 52 51
56 56 57 57 59 59 59 60 60 59 57 58 56 53 53 53 54 53 50 46 47 46 48 48 47 48 48 49 50 51 51 52 53 55 56 54 52 51 50 50 50 50 50
55 58 58 57 58 59 59 59 59 60 59 57 59 56 55 51 50 50 49 52 52 52 54 53 52 50 50 50 49 49 49 48 49 51 52 51 50 50 50 49 49 49 49
55 57 58 59 59 59 57 58 60 60 59 59 59 58 56 56 54 52 52 51 52 53 54 55 53 51 50 52 50 48 49 47 47 48 48 47 47 46 46 46 46 47 47
55 57 59 58 57 57 56 58 57 56 57 58 59 59 57 56 56 55 52 52 53 52 53 52 54 54 51 50 49 47 47 45 44 44 45 46 46 45 44 44 44 44 44
55 57 57 57 57 57 57 56 54 54 56 56 58 58 58 57 56 56 56 55 54 51 50 52 52 53 49 50 48 47 46 45 44 43 43 43 44 43 43 43 43 43 43
56 56 57 57 56 55 54 55 54 53 55 56 56 57 57 57 57 57 56 57 56 54 50 53 54 52 48 44 46 46 46 44 44 42 41 41 42 42 42 42 41 41 41
56 56 55 55 55 54 54 54 55 55 55 55 57 57 56 57 58 58 59 57 56 54 51 52 50 50 48 45 42 43 44 44 44 41 41 41 40 39 39 40 39 38 36
56 56 56 54 53 53 54 54 54 53 55 55 55 56 55 55 57 58 58 56 55 53 52 50 48 48 44 43 41 43 42 41 43 43 42 40 39 38 37 36 36 37 38
57 56 55 55 54 54 55 55 54 54 55 55 55 55 55 55 57 56 55 54 53 51 51 50 48 45 44 43 42 41 43 43 40 43 39 37 36 35 33 35 36 35 35
56 55 56 55 56 55 55 55 55 55 55 55 55 56 55 56 56 56 55 53 52 50 50 48 47 42 43 42 41 40 40 41 39 36 33 27 31 33 35 35 34 35 35
56 56 56 57 57 56 54 56 55 56 56 55 55 55 56 55 51 52 53 53 52 50 48 46 44 39 39 38 38 39 38 38 37 36 29 25 26 28 29 34 33 35 36
56 57 56 55 56 53 47 44 50 56 55 54 55 56 55 50 50 45 45 46 50 49 45 43 41 40 39 38 37 36 35 33 28 32 28 25 27 24 26 26 30 31 30
57 56 56 56 56 56 45 44 43 54 55 56 56 55 55 54 49 52 40 37 37 37 38 42 40 37 35 37 36 32 29 28 26 28 25 25 26 25 25 18 31 31 31
56 55 55 55 55 55 45 44 43 53 55 56 56 56 55 52 46 41 36 34 32 32 33 35 34 32 33 33 33 31 28 28 28 23 23 21 24 24 24 26 30 31 31
55 56 55 55 54 55 45 43 44 52 52 43 41 42 42 39 38 37 33 31 30 30 32 32 32 31 31 29 25 28 27 24 25 18 23 23 23 23 28 26 26 29 32
55 55 51 45 41 44 39 40 43 41 36 34 34 34 35 35 34 34 33 32 28 28 28 27 27 19 19 20 19 20 19 21 21 19 22 21 20 21 19 24 26 28 27

GFSMA_sfc_dewp_069.txt.gz
Dewpoint
62 59 59 59 57 57 55 53 53 52 49 50 52 53 53 53 54 55 55 58 59 58 57 57 56 56 55 54 54 53 52 51 51 50 49 49 49 48 47 46 46 46 47
61 57 57 55 56 54 52 52 52 50 50 51 53 53 53 53 53 54 55 56 58 59 58 57 56 56 55 54 53 53 52 52 50 49 49 48 48 47 46 46 45 45 45
60 56 55 55 56 54 51 52 53 52 51 52 52 53 53 53 53 54 55 56 57 58 58 58 57 56 55 55 54 53 53 52 51 50 48 48 48 47 46 45 44 44 44
60 59 56 55 56 54 53 53 54 51 52 51 51 52 53 53 53 53 54 55 56 55 58 59 59 58 57 56 55 54 53 53 53 51 49 48 47 47 46 45 43 43 43
61 60 58 57 56 55 56 54 54 51 50 51 51 51 52 53 54 53 53 54 55 56 56 58 59 59 59 58 57 56 55 54 53 53 52 50 49 48 47 46 44 43 43
59 60 59 59 60 57 57 54 52 52 50 51 48 49 51 52 53 53 53 54 55 55 55 55 57 57 58 59 59 58 57 56 55 54 54 53 52 50 49 48 46 45 44
58 58 58 59 57 58 56 53 52 51 50 50 48 49 50 51 51 52 53 53 54 54 56 56 56 56 56 59 60 59 59 59 57 55 54 54 54 53 51 50 49 48 46
56 56 57 57 54 58 57 54 50 49 49 50 47 46 44 44 47 49 49 51 52 53 55 55 56 56 56 56 57 60 60 60 59 57 56 57 56 56 54 52 51 51 50
54 54 56 57 56 56 56 53 50 48 48 48 47 46 44 42 44 46 47 47 48 49 50 53 56 56 56 56 57 57 57 58 60 60 60 58 58 57 57 55 53 53 52
55 53 55 54 55 57 55 54 54 51 52 46 48 50 50 51 47 46 46 47 47 48 48 49 50 55 55 54 56 56 55 55 56 59 59 60 59 58 58 57 57 55 54
54 54 55 56 55 55 56 56 56 55 54 53 49 51 50 51 52 49 45 46 47 49 48 49 49 49 49 49 52 55 53 53 54 57 59 59 59 60 59 58 57 57 56
55 56 54 57 57 56 57 57 56 56 56 56 53 52 52 51 51 50 48 47 46 48 49 50 49 48 48 49 50 50 51 52 52 55 57 57 58 59 59 59 59 57 56
54 55 56 56 56 57 57 57 56 56 56 56 56 56 55 55 54 52 52 49 49 49 49 50 50 49 48 49 48 49 50 48 50 52 54 55 56 57 57 57 57 56 55
53 53 56 57 57 55 56 57 57 56 57 57 56 57 57 55 56 55 52 52 48 49 51 50 53 51 50 50 50 50 50 48 47 49 51 53 54 55 55 55 55 55 54
53 53 53 57 57 56 55 56 56 55 56 56 56 56 56 56 55 55 55 54 51 47 48 51 52 54 54 53 52 52 51 49 47 46 48 50 52 53 53 52 51 51 50
53 52 52 55 56 56 56 55 55 55 54 55 54 54 53 53 54 55 54 55 54 51 48 50 51 52 53 53 52 52 51 50 47 45 45 47 49 49 49 48 48 48 48
53 53 52 54 55 55 56 56 55 54 53 52 52 52 53 53 53 54 55 54 54 53 50 49 52 53 52 53 53 53 53 51 50 45 45 45 46 45 45 45 45 45 46
54 53 52 53 53 54 54 54 54 54 53 52 52 51 52 53 53 53 55 54 54 53 52 50 52 52 51 53 53 52 50 49 50 46 44 44 44 43 43 43 43 43 42
54 54 54 52 52 54 54 54 54 53 53 53 52 52 51 51 52 53 54 54 54 54 54 53 53 53 53 46 48 46 50 49 48 46 43 43 43 43 42 42 41 40 39
55 54 54 53 53 53 54 54 54 54 54 54 53 53 52 52 51 52 53 54 54 54 54 54 54 54 52 48 49 49 46 46 47 48 45 43 43 43 42 41 40 38 36
55 55 55 54 53 53 53 54 54 54 54 54 54 53 52 51 48 50 53 54 54 54 53 53 53 53 50 40 44 48 46 48 44 45 43 43 42 41 41 38 37 37 37
56 56 56 55 55 53 48 45 51 54 53 53 52 52 52 48 47 44 44 45 51 53 53 53 53 52 52 49 48 47 43 37 36 40 38 37 38 37 38 37 36 37 37
57 56 56 56 55 55 46 44 43 52 53 52 52 52 52 52 48 52 46 42 38 38 40 49 52 52 49 44 40 36 35 35 33 35 35 33 36 35 37 36 36 36 36
56 56 56 56 56 55 46 45 42 50 53 53 53 54 54 54 53 52 40 34 33 33 35 36 37 35 35 36 37 36 34 33 33 33 34 30 33 32 35 35 34 33 32
55 55 55 55 55 55 38 40 43 50 52 46 39 39 42 43 40 41 36 32 30 30 33 33 33 33 33 34 35 34 32 31 29 30 34 31 30 31 30 30 32 33 30
55 54 41 39 39 39 36 38 43 46 38 34 33 34 35 35 35 35 34 31 28 28 29 29 28 28 29 30 31 31 32 29 28 27 25 28 23 23 23 26 28 26 26

GFSMA_sfc_dewp_072.txt.gz
Dewpoint
62 61 61 61 60 59 57 55 53 51 51 52 53 53 53 54 54 56 56 60 59 58 58 58 57 57 56 55 54 53 53 52 51 52 51 51 50 49 48 48 48 48 48
61 60 60 59 58 56 55 53 52 49 49 51 53 53 53 54 54 54 55 57 59 59 58 57 57 56 56 56 54 53 52 51 51 51 50 50 49 48 47 46 46 46 45
60 59 57 56 56 54 52 52 52 49 49 52 53 53 53 53 53 54 54 55 57 58 58 58 57 56 56 56 55 53 53 52 51 50 50 49 49 48 47 46 45 45 44
58 57 55 55 53 52 51 52 53 50 49 52 53 53 53 53 53 54 54 55 55 55 57 58 58 58 56 55 55 55 54 53 52 51 50 49 49 48 47 46 45 45 45
57 55 55 55 53 51 50 52 53 51 50 51 53 53 53 53 53 53 54 55 55 55 55 58 58 58 58 57 56 56 55 55 54 53 52 50 49 49 48 47 46 45 45
57 56 55 57 55 51 52 53 53 51 51 51 50 52 53 54 53 53 53 54 55 55 55 55 56 56 58 58 58 57 57 57 56 55 55 53 51 50 50 49 48 47 46
59 55 55 58 55 55 54 53 53 50 50 51 49 49 51 53 53 53 53 54 54 55 55 55 56 56 56 58 59 59 59 58 57 57 55 55 55 53 52 51 50 49 48
59 57 55 58 57 56 56 55 52 51 50 50 49 48 46 46 50 52 53 53 54 54 55 55 55 55 55 56 57 60 60 59 59 58 57 57 57 57 54 53 52 51 50
58 59 57 57 57 57 55 54 51 50 48 49 49 48 44 44 45 47 49 53 53 54 54 55 55 55 56 56 56 57 57 58 60 61 60 58 58 57 57 56 55 53 53
58 57 58 57 56 58 57 56 54 50 50 48 48 48 47 48 46 44 46 48 49 51 52 54 55 55 56 56 56 55 54 55 57 60 61 60 59 58 58 58 58 57 55
57 56 57 57 56 57 57 56 55 53 51 50 47 49 49 51 51 48 44 45 47 47 49 50 52 55 55 56 56 55 53 53 54 57 59 60 60 60 59 59 58 58 58
56 55 56 56 56 56 57 56 56 55 53 51 50 50 50 50 50 49 47 46 45 46 49 49 49 49 51 53 54 53 52 51 52 55 57 58 59 60 60 60 60 59 59
55 53 54 56 56 56 57 56 56 56 55 54 53 53 55 52 52 51 50 49 48 48 49 49 49 49 49 49 49 50 51 49 50 52 54 55 57 57 58 59 59 60 59
54 54 55 55 57 55 55 57 56 55 55 55 55 55 55 56 55 55 52 50 48 48 50 48 50 49 49 49 48 48 48 47 47 48 51 53 54 55 56 56 57 58 58
54 54 55 56 56 56 56 56 55 55 56 55 55 55 55 56 56 56 55 54 51 48 47 50 51 52 50 50 49 49 48 48 47 46 46 48 50 52 53 54 55 55 56
54 54 53 55 56 56 55 55 55 55 55 55 55 54 54 54 55 55 55 55 54 52 49 48 50 53 53 53 52 51 51 50 48 47 46 46 47 48 50 52 53 54 55
53 53 53 53 55 56 56 55 54 54 54 54 54 53 53 52 52 53 54 54 53 53 51 50 51 51 52 53 53 53 53 53 52 47 46 46 45 46 47 49 50 50 50
52 53 53 53 52 53 54 55 55 54 54 53 53 53 53 53 53 52 52 53 53 53 52 50 50 51 50 52 52 52 53 53 53 50 47 45 45 45 46 46 46 46 46
53 52 52 52 52 53 53 54 54 54 53 53 53 53 52 52 52 52 52 52 53 53 53 52 51 51 52 49 51 50 52 51 51 49 46 44 44 45 45 45 44 44 43
55 54 54 53 53 52 52 53 54 53 53 53 53 53 52 52 51 51 52 52 52 52 52 52 52 52 52 52 52 52 51 50 51 51 47 44 44 44 43 43 42 42 40
55 55 54 54 54 53 52 52 52 53 53 53 53 53 53 52 48 49 51 51 51 51 52 52 52 52 52 49 47 52 51 52 50 49 45 43 43 43 42 42 41 39 38
55 55 55 54 54 53 48 45 49 53 53 54 53 53 54 49 48 44 44 44 49 51 52 52 52 51 51 52 52 51 51 41 41 41 40 37 39 39 39 39 38 38 37
55 55 55 54 54 54 46 44 43 51 53 54 54 54 54 54 49 52 46 42 42 39 40 50 51 51 52 52 53 46 41 38 36 36 36 33 36 35 38 38 37 37 37
55 55 56 56 55 55 46 45 43 51 53 53 54 54 54 53 53 51 51 49 38 35 35 37 41 41 38 39 41 40 37 33 33 33 35 30 33 33 37 37 37 37 37
55 55 56 56 56 56 38 40 43 52 52 53 52 43 44 47 47 45 49 39 32 31 34 34 34 33 34 34 36 36 33 33 30 30 33 31 31 32 32 33 34 34 33
45 44 36 35 34 36 35 36 38 48 50 40 34 34 35 36 36 37 38 33 29 28 28 29 29 29 29 29 30 30 32 30 28 26 27 29 27 28 27 27 30 26 26

GFSMA_sfc_dewp_075.txt.gz
Dewpoint
62 63 62 61 61 60 58 56 52 52 52 53 54 54 54 55 55 56 56 59 59 58 58 58 58 57 56 56 55 55 54 54 54 53 53 52 52 51 51 51 51 50 49
63 62 61 60 59 59 57 54 51 51 52 53 53 54 54 54 55 55 56 57 59 59 59 58 57 57 56 56 55 54 54 53 53 52 52 51 51 49 49 49 49 48 47
63 62 60 59 58 56 55 53 50 50 52 53 53 53 54 54 54 54 56 56 57 58 59 58 58 57 56 56 54 54 53 53 52 52 51 51 50 49 48 47 47 47 46
62 61 59 58 56 54 53 52 50 49 52 53 52 53 53 54 54 54 55 55 55 55 58 59 58 58 56 56 56 54 54 52 52 52 51 51 50 49 48 48 47 47 46
60 59 58 56 54 52 52 52 51 49 51 53 53 53 53 53 53 54 54 54 55 54 55 58 58 58 58 57 56 56 55 54 53 52 51 51 51 50 49 48 47 47 47
59 57 55 54 54 50 52 52 51 50 51 53 52 52 53 53 53 53 53 54 54 54 55 55 56 56 58 58 57 57 57 57 56 55 54 52 51 51 50 49 49 48 47
57 54 55 54 53 49 51 52 52 49 50 51 51 51 51 52 53 53 54 54 54 54 55 55 56 56 56 58 59 58 58 58 57 56 56 55 54 52 52 51 51 50 49
58 54 55 53 52 50 53 53 52 51 50 51 50 50 48 49 52 53 53 53 53 54 54 54 55 55 55 56 56 59 59 59 60 59 58 58 57 56 54 53 52 52 51
59 56 55 54 53 52 54 54 52 51 49 51 50 49 46 47 49 50 52 53 53 54 54 54 54 54 55 55 56 57 57 58 60 61 61 60 59 58 58 57 56 54 53
60 58 57 57 56 55 55 55 53 51 50 49 48 48 48 47 49 45 48 52 53 53 53 54 54 54 55 55 55 55 54 54 56 59 61 61 60 60 59 58 58 58 57
59 59 58 58 57 58 56 56 54 52 52 52 48 48 49 51 49 47 45 45 48 51 53 53 54 55 55 55 56 55 53 52 54 57 59 60 61 61 60 59 59 59 59
57 58 59 58 57 58 56 56 56 54 52 52 50 49 49 50 50 49 47 46 45 46 49 51 52 53 55 55 56 54 53 52 52 54 56 58 59 60 60 61 60 60 59
57 56 57 58 57 57 57 57 56 56 55 54 52 51 51 51 52 51 50 49 48 48 47 49 49 50 51 53 55 54 53 50 51 53 54 56 57 58 59 59 60 60 61
56 56 56 57 57 57 57 57 57 56 56 55 54 53 54 52 54 53 51 49 47 48 48 47 49 49 49 49 49 49 51 49 49 50 51 53 54 55 56 56 57 58 59
55 55 54 55 56 56 56 57 56 55 56 56 55 54 53 54 55 55 54 53 51 48 48 49 49 51 50 49 49 49 49 48 47 47 47 49 51 52 53 54 54 55 56
54 54 54 55 55 56 56 56 55 55 55 55 54 54 54 54 55 56 55 55 54 52 50 51 50 52 52 50 50 49 49 48 46 45 45 45 47 49 50 51 51 52 53
54 54 54 54 55 55 55 54 54 54 55 54 54 54 53 54 53 54 54 54 53 53 51 51 51 52 51 52 52 53 52 51 50 47 46 45 45 45 46 47 48 49 50
54 54 54 54 54 55 55 54 54 54 54 53 54 54 54 53 53 52 53 52 52 52 52 51 51 52 50 51 51 52 52 53 53 51 48 47 46 45 45 45 45 46 47
52 53 53 53 53 53 54 55 55 54 54 54 54 54 53 53 53 52 52 52 52 52 52 52 51 52 52 51 50 51 51 52 52 51 47 46 46 46 45 45 45 45 46
54 53 53 53 53 52 52 52 53 54 54 54 54 54 53 53 52 52 52 52 52 52 52 52 51 51 51 52 50 51 51 51 51 52 50 48 47 45 44 44 44 45 45
55 55 54 53 53 53 52 52 52 52 52 53 53 53 53 52 49 49 51 51 51 51 51 51 51 51 51 51 50 51 51 52 52 52 52 49 47 44 44 43 44 43 42
55 54 54 54 54 53 47 45 49 52 52 52 52 52 53 48 48 45 44 44 49 51 51 51 50 50 50 51 52 52 51 51 49 44 44 40 42 41 42 42 41 39 39
55 55 55 55 54 54 46 44 44 52 52 52 52 53 53 53 49 52 46 42 43 42 44 51 51 51 51 52 52 52 51 51 50 40 37 34 36 36 39 39 38 38 38
48 54 55 55 55 54 37 40 43 51 53 53 53 53 54 54 54 53 53 52 50 47 42 42 46 44 40 38 41 43 43 33 34 33 35 32 33 33 36 37 38 38 37
41 40 37 36 39 36 34 35 37 48 52 53 53 45 39 45 43 42 51 51 40 32 33 33 34 32 32 32 34 36 33 34 31 28 29 31 31 31 32 32 34 36 36
33 31 30 30 31 31 34 35 36 40 44 45 35 34 34 34 35 36 38 42 32 28 29 28 28 28 29 29 29 28 31 30 29 27 27 28 28 29 27 29 29 29 29

GFSMA_sfc_dewp_078.txt.gz
Dewpoint
62 63 63 63 63 60 58 55 55 56 54 54 55 55 55 55 55 55 56 59 60 60 59 59 59 57 56 56 56 56 55 55 55 55 54 54 54 53 53 53 52 51 51
61 62 62 62 61 60 57 53 54 54 53 54 54 54 55 55 56 56 56 57 59 59 59 58 57 57 57 56 56 55 55 55 55 54 54 54 53 52 52 52 51 50 50
61 62 62 61 60 59 55 52 52 53 53 54 54 54 55 55 55 56 56 56 57 58 59 59 58 56 56 56 56 55 55 54 54 54 53 52 51 50 50 50 50 49 48
63 63 62 61 59 57 55 52 51 52 53 53 53 54 54 55 55 55 56 56 56 56 58 58 59 58 56 56 56 55 55 54 53 53 52 52 51 50 49 49 49 48 47
61 62 61 59 57 55 55 52 51 52 53 53 53 53 54 54 54 54 55 55 55 55 56 58 58 58 58 57 56 56 55 54 53 53 53 52 52 51 50 49 48 48 48
61 62 60 57 57 54 53 51 50 51 53 53 52 52 53 53 54 54 54 54 55 55 55 56 57 57 57 58 57 57 57 56 55 54 53 52 52 51 51 50 49 49 49
61 60 58 56 55 53 52 52 50 50 52 53 52 51 52 52 53 53 54 54 55 55 55 55 56 56 56 58 59 57 57 57 57 56 55 55 53 52 52 52 51 51 50
58 57 56 55 53 52 53 52 50 50 51 53 51 50 49 51 52 53 54 54 54 54 54 55 55 56 56 56 57 59 59 59 59 58 58 58 58 56 54 53 53 52 52
58 57 56 55 51 51 52 52 51 50 51 52 52 50 48 48 50 52 52 53 53 54 54 54 55 55 55 55 56 57 57 58 60 61 61 60 59 59 59 57 56 54 54
58 57 56 54 51 51 52 53 52 50 52 51 50 50 50 50 50 46 49 52 53 53 54 54 54 54 55 55 55 55 54 54 56 59 61 62 61 60 59 59 59 58 57
58 57 58 55 54 54 54 54 54 52 52 52 50 49 49 50 49 48 46 48 51 53 53 54 54 54 54 55 55 55 53 52 54 57 59 60 61 61 61 60 60 59 59
59 57 58 58 58 56 56 56 55 53 53 53 51 50 50 49 48 48 46 47 48 49 52 53 54 54 55 55 55 54 53 51 52 54 56 58 59 60 60 61 61 61 60
57 58 57 57 57 57 56 56 55 55 53 53 52 51 51 51 52 50 48 48 46 47 48 50 52 53 54 55 55 54 53 50 51 52 54 55 56 58 59 59 60 61 61
57 57 58 57 56 57 58 57 56 56 56 55 55 53 52 52 53 52 50 49 47 48 50 49 50 50 52 53 53 52 54 50 50 50 52 53 54 55 55 57 58 58 59
56 57 57 58 57 57 57 57 57 57 56 56 55 55 55 54 54 54 53 52 48 46 47 49 50 51 50 50 50 51 51 50 49 49 49 50 52 53 53 54 55 55 56
55 54 55 56 57 57 57 57 56 57 57 56 56 55 55 55 54 54 54 53 52 48 45 48 50 52 52 52 51 50 50 48 47 46 46 47 48 49 50 51 52 52 53
55 55 55 55 56 56 56 56 56 56 55 55 55 55 54 54 53 54 54 54 53 53 49 49 50 52 52 53 53 52 52 51 50 46 45 45 45 45 46 47 48 49 50
54 54 54 54 55 55 55 55 55 55 55 54 54 54 54 54 54 54 54 53 53 54 52 49 49 50 52 53 53 52 52 52 52 49 47 45 45 44 44 44 45 45 46
53 54 54 53 54 55 55 55 54 54 54 54 54 54 54 54 53 53 53 53 53 52 52 50 50 51 52 53 52 52 52 53 52 50 48 46 46 46 46 45 45 45 45
53 53 53 53 53 53 53 54 54 54 54 54 54 54 54 53 53 53 52 53 52 52 52 52 51 51 52 52 52 51 51 51 51 52 50 49 48 48 46 46 45 45 45
54 53 53 53 53 53 53 53 53 53 54 54 54 54 54 53 49 50 52 52 53 52 52 51 51 51 51 51 51 51 51 52 52 53 52 52 52 52 51 46 47 45 44
55 55 55 54 53 53 47 45 49 52 52 52 52 53 53 49 49 45 45 45 49 52 51 51 50 50 50 51 51 51 51 50 49 53 52 52 47 50 48 46 44 43 43
47 52 53 55 55 54 36 38 41 52 52 52 52 52 52 53 49 52 47 43 43 42 44 51 51 51 51 51 51 51 51 51 50 45 42 41 37 37 39 40 40 40 39
39 38 37 38 41 36 35 36 35 42 51 53 53 52 45 47 49 43 50 52 51 46 38 43 46 41 34 34 38 41 39 34 34 32 33 33 33 32 35 37 38 37 37
34 32 32 33 33 33 34 35 36 42 47 39 34 33 33 33 34 37 38 39 35 30 32 32 31 31 30 31 31 36 34 37 36 29 28 32 30 30 31 30 32 34 34
31 30 29 30 31 30 33 34 36 40 34 32 31 31 32 32 33 34 34 34 28 28 28 27 27 27 28 28 29 28 29 29 29 25 27 28 28 30 26 29 28 30 29

GFSMA_sfc_dewp_084.txt.gz
Dewpoint
62 60 60 63 66 65 65 65 65 63 62 60 59 59 58 56 55 52 54 61 61 61 58 57 59 60 60 58 57 57 57 56 56 56 56 56 55 55 55 55 54 54 54
62 61 62 65 64 64 64 64 64 62 60 58 58 58 57 55 55 53 52 57 59 60 61 60 60 59 57 57 56 57 56 56 56 56 56 56 55 55 55 54 54 53 52
64 63 64 65 64 64 64 63 63 62 58 57 57 57 56 55 53 53 52 55 56 59 60 61 61 59 57 57 57 57 56 56 56 56 56 55 55 55 54 54 53 52 52
63 63 64 64 64 63 64 63 63 58 57 56 56 55 53 53 54 54 52 54 55 54 59 60 60 59 59 56 57 56 56 56 56 55 55 55 54 54 54 54 53 52 52
62 63 64 65 63 62 63 61 62 58 56 55 54 54 53 53 54 52 52 53 55 54 54 58 58 58 59 58 57 56 56 56 56 56 55 55 54 53 53 53 53 52 51
62 64 63 63 62 61 60 61 60 59 56 55 51 53 54 54 54 54 53 52 53 54 53 56 55 54 58 59 58 56 57 56 56 56 55 55 54 54 53 52 52 52 52
62 62 62 62 61 59 59 59 59 58 56 56 53 55 54 55 56 54 55 53 53 53 54 53 53 51 54 58 59 57 57 57 57 56 55 55 55 55 54 53 53 52 52
62 62 62 61 60 59 58 59 59 57 56 56 53 53 52 53 54 55 55 54 55 53 53 53 53 53 52 53 55 59 58 58 58 58 57 57 57 57 56 55 54 54 53
61 61 61 60 60 59 57 58 60 58 55 55 55 51 50 48 52 54 55 54 54 54 52 53 54 53 54 52 54 56 57 58 60 60 60 59 59 58 58 57 57 56 55
61 60 61 60 60 59 58 58 59 58 56 55 55 53 52 48 48 50 53 54 54 54 55 52 52 53 54 54 55 53 54 54 56 59 61 62 61 60 59 59 59 58 58
59 59 59 59 59 59 58 58 59 59 57 56 54 54 54 53 52 47 47 51 53 53 54 54 53 54 54 54 55 55 52 53 53 56 58 60 61 62 61 61 60 60 59
58 57 57 57 58 58 58 58 59 58 57 57 55 55 53 53 51 50 48 50 50 52 53 54 56 55 54 55 55 53 52 51 52 54 56 57 59 59 60 61 62 62 61
57 57 57 56 57 57 57 57 57 57 57 57 57 56 54 53 53 51 50 47 48 51 53 54 55 55 55 56 55 53 53 50 51 52 53 55 56 57 58 59 60 60 61
58 58 57 57 56 57 57 58 57 57 57 58 57 57 56 54 55 53 50 48 47 48 48 53 55 56 56 55 56 52 55 50 49 50 51 52 53 54 55 56 57 58 59
59 59 58 57 56 56 56 57 57 56 57 57 58 58 56 57 55 54 55 54 48 48 47 51 51 55 56 56 55 57 56 52 50 49 49 50 51 52 53 53 54 55 56
58 59 59 58 56 56 56 56 55 56 56 56 56 56 56 56 56 57 55 56 55 52 49 50 52 52 54 51 53 55 56 51 49 48 47 47 48 50 51 51 52 53 53
57 58 58 57 56 55 55 54 52 53 55 56 57 56 55 56 57 57 56 55 54 54 51 52 52 53 56 55 53 54 53 54 53 48 47 46 46 46 47 48 49 50 51
57 57 58 57 57 56 55 53 51 51 51 51 53 56 55 56 56 56 56 55 55 55 54 52 53 53 53 54 54 53 51 50 52 49 47 46 46 45 45 45 45 46 47
56 56 56 57 57 57 56 54 53 53 53 54 53 52 51 54 54 55 55 55 55 55 55 54 53 53 53 53 53 54 55 56 53 50 47 46 46 46 46 45 45 45 45
55 55 56 55 56 57 57 56 55 55 54 55 55 55 54 55 55 55 55 55 55 55 54 54 54 53 53 53 53 53 53 55 54 52 50 48 48 48 46 46 45 45 45
55 55 55 56 56 56 43 45 56 57 57 57 57 57 58 56 51 53 55 56 56 55 54 53 54 54 54 54 53 53 53 53 54 54 54 54 55 56 50 43 42 42 43
45 46 46 47 41 38 36 37 41 54 56 55 55 56 56 51 51 44 44 44 49 53 54 53 53 52 52 52 52 52 52 51 50 41 44 51 42 37 36 37 38 38 39
39 39 39 38 36 35 35 36 36 44 49 41 40 40 42 40 38 40 41 36 34 34 35 41 45 41 36 35 35 38 42 39 38 35 38 37 36 33 34 35 36 36 36
34 35 34 34 34 33 35 37 37 39 35 34 33 34 34 34 34 36 41 34 32 31 31 31 30 29 30 31 32 35 37 37 35 32 31 37 34 31 31 32 33 34 34
32 31 31 31 31 32 33 36 35 33 30 30 30 31 31 31 33 37 38 31 30 29 30 30 30 29 30 30 30 33 31 33 34 29 28 30 31 30 30 31 33 33 32
30 30 29 30 31 30 31 33 32 31 29 29 29 30 30 30 30 30 30 28 26 26 26 27 27 28 29 28 28 30 31 30 31 30 30 31 33 34 32 33 33 33 33

GFSMA_sfc_dewp_087.txt.gz
Dewpoint
67 65 63 63 64 66 64 63 63 64 64 63 62 60 59 56 53 54 57 62 62 62 61 59 59 58 59 60 58 58 57 57 56 57 57 57 56 56 56 55 55 55 55
66 64 64 64 65 66 65 63 63 63 64 63 61 60 55 54 54 53 55 58 61 61 61 59 59 60 60 59 58 57 56 57 56 56 56 56 55 55 55 55 55 54 53
64 65 64 66 63 64 66 63 63 63 63 59 58 55 54 54 53 52 53 56 57 59 60 61 61 60 58 57 57 57 56 56 57 56 56 56 55 55 55 54 54 53 53
63 64 64 65 65 64 64 62 62 62 61 58 57 55 53 53 53 52 52 54 54 53 59 60 61 61 59 57 57 57 57 57 57 56 56 56 55 55 55 54 54 53 53
63 64 64 65 64 64 64 63 62 61 60 58 56 54 52 50 52 49 52 54 56 56 56 59 59 59 59 59 57 57 57 57 57 56 56 56 56 55 55 55 54 53 53
63 64 63 64 63 63 63 63 61 61 59 57 53 51 52 52 51 51 51 51 53 55 54 57 57 55 58 59 59 57 57 57 57 57 56 56 56 55 54 54 54 54 53
63 63 63 63 63 62 62 62 61 60 59 56 55 55 57 57 55 54 52 50 52 52 54 55 54 52 54 58 59 58 57 57 57 57 57 56 56 56 55 54 54 53 53
63 62 62 62 62 61 61 61 60 59 59 57 54 53 52 54 56 56 55 53 55 50 50 53 54 52 53 53 55 59 58 58 58 57 57 58 58 57 57 55 55 54 54
63 63 62 62 61 61 60 60 60 58 56 57 57 52 50 48 53 55 57 56 57 52 51 51 52 52 53 53 55 56 57 57 59 60 60 59 59 59 58 58 57 57 56
61 62 62 62 61 60 59 60 60 59 58 56 56 53 53 50 50 52 54 55 55 53 55 52 52 52 53 52 54 54 54 54 56 59 61 61 60 59 59 59 59 59 58
60 61 61 61 60 60 59 59 59 59 59 57 55 55 54 52 53 50 49 53 54 53 53 55 53 53 53 53 54 54 52 52 53 56 59 61 62 61 60 60 60 60 60
59 59 59 60 60 59 59 59 59 59 59 58 56 55 53 51 51 49 51 52 52 52 53 54 56 55 54 54 54 52 52 51 52 54 56 58 59 61 61 62 62 62 61
58 57 57 57 59 59 59 59 59 59 60 58 57 55 55 55 54 53 52 50 50 50 51 55 56 56 55 57 56 52 52 50 50 52 54 55 56 57 58 59 60 61 61
58 57 57 57 57 58 58 59 59 59 60 59 58 58 56 56 55 53 51 50 47 46 48 53 55 56 57 57 56 52 56 50 49 50 51 52 53 54 55 56 57 58 58
58 58 58 56 57 57 57 57 57 57 58 59 59 58 57 56 57 55 53 52 49 46 45 49 49 56 57 58 56 58 58 54 49 48 49 50 51 52 53 53 54 55 56
59 59 57 57 56 57 57 57 57 57 57 58 58 57 57 56 56 57 54 56 55 52 46 48 50 54 55 54 54 57 58 53 49 48 47 48 48 50 51 51 52 52 53
57 58 58 57 56 56 56 56 55 55 54 55 57 57 56 57 56 57 57 56 55 55 52 52 50 52 54 55 54 55 54 55 55 49 47 47 47 47 48 48 49 50 51
57 58 58 58 56 55 55 54 54 53 53 54 55 55 55 55 56 57 57 56 56 56 54 51 52 52 53 54 54 54 53 53 53 50 48 47 47 46 46 45 46 46 46
57 57 58 58 57 56 55 54 53 52 52 52 52 53 54 55 55 55 56 55 55 55 55 53 52 53 55 55 54 54 54 55 53 50 47 45 45 46 45 45 45 45 45
57 56 56 57 57 57 56 55 53 52 51 51 51 52 53 52 53 53 54 53 53 53 53 53 53 53 54 55 55 54 55 55 54 52 50 48 48 46 42 42 42 42 43
53 54 56 56 53 43 39 43 52 55 54 54 54 54 54 53 49 50 52 53 54 54 53 53 54 54 53 53 53 54 54 54 56 46 47 47 43 40 38 38 38 39 40
43 43 42 41 40 37 36 37 41 52 52 51 52 50 48 42 42 38 37 37 37 44 48 51 53 53 51 39 39 41 42 43 45 38 41 43 38 35 35 35 36 37 37
37 37 37 37 35 36 36 38 39 43 39 38 38 38 38 37 37 40 35 34 32 33 32 37 39 31 32 31 33 36 39 40 40 33 36 39 36 32 33 34 35 35 34
34 34 34 34 34 34 36 35 34 34 33 32 32 32 33 33 35 37 34 30 30 30 30 30 30 30 30 31 32 34 35 35 35 31 30 34 33 30 32 32 33 33 33
31 31 32 32 32 33 34 34 33 32 30 30 30 31 31 31 34 36 31 28 28 28 31 31 31 30 29 29 30 32 32 33 33 31 30 31 33 32 32 32 33 31 30
30 30 30 31 31 30 33 33 32 31 29 29 29 29 30 31 32 32 30 29 27 28 30 32 32 32 32 31 28 31 31 31 32 33 29 28 32 34 33 34 34 34 34

GFSMA_sfc_dewp_090.txt.gz
Dewpoint
66 66 65 64 63 65 64 64 64 63 62 64 64 62 60 60 61 60 60 62 63 63 61 60 61 60 58 57 57 57 56 57 57 58 57 57 58 57 57 57 57 56 55
66 65 65 64 64 65 63 64 63 62 63 63 63 62 59 59 59 58 59 60 62 62 62 60 59 59 59 59 58 57 57 56 56 56 57 57 57 57 57 56 56 55 55
66 65 64 64 64 65 64 63 62 62 62 63 62 59 59 56 55 57 57 59 60 60 60 60 60 60 59 59 58 57 57 57 57 56 57 56 56 56 56 56 55 54 54
65 64 64 64 64 64 64 62 62 62 62 63 61 61 56 55 54 55 56 57 57 56 59 60 61 62 60 58 58 57 56 56 57 56 57 56 56 56 56 55 55 54 54
64 64 64 64 64 64 63 62 61 61 61 61 61 54 54 53 53 51 54 55 56 55 57 60 60 60 60 59 56 57 57 58 57 57 57 57 56 56 56 56 55 55 54
64 64 64 64 64 63 62 62 61 61 61 61 61 53 52 53 53 53 54 55 55 56 57 58 58 57 58 59 58 57 57 58 58 57 57 57 57 56 56 55 55 55 54
64 64 63 63 63 62 62 62 61 60 60 61 59 55 55 54 53 52 54 53 55 55 56 57 56 55 56 59 59 59 57 58 58 57 57 57 57 58 57 55 55 55 55
63 63 62 62 62 62 62 61 60 59 59 60 57 53 52 53 55 54 54 54 54 53 53 56 55 54 53 55 56 59 58 58 58 58 58 59 59 58 57 56 55 55 55
63 63 62 62 62 62 61 61 60 58 57 59 59 51 51 50 53 55 56 55 55 56 52 54 54 53 53 54 55 57 57 57 60 60 60 59 59 59 59 58 57 56 56
62 62 62 62 62 61 61 61 61 59 58 57 58 54 52 52 51 52 55 55 56 55 54 54 53 53 53 55 55 54 54 54 56 59 60 60 60 60 59 59 59 59 59
61 61 62 62 61 61 60 60 60 60 59 57 56 55 52 53 51 52 51 53 55 54 54 55 54 53 53 54 54 54 53 52 53 56 58 60 61 60 60 60 60 60 60
59 58 60 61 61 61 60 60 60 60 59 58 58 56 52 51 52 51 51 52 52 53 54 54 54 55 54 54 54 52 52 51 51 54 56 58 59 60 61 61 61 61 61
58 57 57 59 60 60 60 60 60 60 59 58 58 56 55 53 54 52 53 52 53 53 54 54 54 54 55 55 54 52 52 49 50 52 54 55 56 57 58 60 61 62 62
58 57 57 57 58 59 59 59 59 59 58 58 59 57 55 56 55 54 52 51 50 51 53 53 56 56 55 56 56 52 53 49 48 49 51 52 53 54 55 56 57 58 59
57 57 57 57 57 58 58 59 59 57 58 58 59 58 57 56 56 55 54 54 49 46 48 53 53 56 57 58 56 57 56 51 48 48 48 50 51 53 53 54 54 55 56
58 57 57 57 57 57 57 58 58 58 58 59 59 58 56 56 56 55 54 55 55 52 47 48 49 52 56 54 56 57 57 53 50 48 47 48 49 50 51 51 52 53 53
59 58 57 57 56 56 57 57 57 57 56 56 57 57 56 57 56 56 56 55 55 55 52 51 51 52 52 54 54 54 54 54 55 48 47 47 47 47 48 48 49 50 50
59 58 58 57 56 56 56 55 55 55 55 54 55 55 55 56 55 55 55 55 55 55 53 51 52 51 52 53 53 53 52 51 52 50 48 48 47 46 46 46 46 46 46
57 58 58 57 56 55 55 55 54 53 53 53 53 54 54 55 54 55 55 55 55 55 55 53 52 52 52 52 52 54 54 54 54 51 48 46 45 44 43 42 42 42 42
57 58 58 57 57 55 55 54 53 54 53 54 54 53 54 55 54 54 54 54 54 53 53 53 52 50 50 52 53 53 53 54 54 52 46 42 41 40 40 39 40 40 40
47 47 46 44 42 41 39 44 53 53 51 51 51 51 51 46 42 44 51 52 53 53 52 51 51 52 52 53 49 44 46 47 44 40 45 42 40 38 37 37 38 38 38
41 40 39 39 39 39 37 38 44 47 47 47 46 46 42 41 37 36 35 34 35 42 46 46 48 42 40 37 36 38 40 42 42 36 38 41 38 34 34 35 35 36 36
36 36 37 37 36 36 36 38 38 38 37 37 36 37 37 37 39 34 33 33 32 32 32 38 32 31 31 31 32 35 37 37 38 32 34 36 35 32 33 34 34 34 34
34 33 33 34 34 34 35 34 33 33 32 32 32 33 33 36 37 34 31 30 30 31 31 31 30 30 30 31 32 34 34 35 32 30 30 31 32 29 30 31 32 31 31
32 32 32 32 32 33 34 33 32 31 30 30 31 32 32 32 34 33 30 28 28 29 32 32 31 30 29 29 30 30 30 32 32 29 25 27 32 32 31 31 33 31 31
30 30 29 30 31 31 34 33 31 30 29 28 29 30 32 32 33 31 30 29 28 30 31 31 30 30 29 28 28 26 28 28 29 28 22 26 30 30 30 32 32 27 27

GFSMA_sfc_dewp_096.txt.gz
Dewpoint
64 64 64 63 63 64 63 62 62 62 63 64 64 64 63 63 63 63 64 64 64 65 65 65 65 65 64 63 62 61 60 59 58 57 57 58 59 58 56 57 58 58 57
65 64 64 63 63 63 64 63 62 62 62 64 64 63 63 62 62 62 63 62 62 64 64 64 64 63 63 62 62 61 60 59 59 57 57 59 59 58 58 58 57 57 57
65 64 64 64 63 63 63 62 61 62 61 63 62 63 63 62 62 61 62 61 61 61 62 63 63 62 61 60 60 59 59 60 59 58 58 58 58 57 57 58 57 56 56
64 64 63 63 64 64 63 62 62 61 60 61 61 61 62 62 61 61 61 60 60 60 60 61 62 62 60 58 58 56 57 58 59 57 57 58 57 57 57 57 57 56 56
64 63 62 62 64 64 63 62 62 61 60 60 60 61 61 61 61 61 60 60 59 58 59 60 60 59 60 60 57 58 58 57 56 58 57 57 57 57 57 57 57 56 56
63 63 62 62 63 62 61 61 61 60 60 60 61 60 61 61 60 60 59 59 58 57 57 58 57 57 59 59 60 59 59 58 57 57 57 56 57 57 57 57 56 56 56
63 62 61 61 62 62 61 60 60 59 60 60 59 59 58 59 59 58 58 58 56 57 57 58 58 57 58 59 59 59 58 58 57 56 57 57 56 58 58 57 57 56 56
62 63 61 61 62 62 61 61 60 59 59 60 57 56 53 54 56 57 57 56 55 55 56 57 58 57 56 56 57 58 57 57 57 57 58 59 57 58 57 57 57 57 57
62 62 61 61 61 61 60 60 60 59 58 60 58 55 52 51 53 55 55 55 55 55 55 56 57 57 55 55 56 57 57 57 59 59 59 59 59 59 58 58 57 57 57
62 61 60 61 62 61 60 60 61 59 59 58 58 59 57 55 51 51 54 54 54 55 55 56 56 56 55 54 55 55 54 54 56 60 60 59 60 60 60 59 59 58 57
62 62 61 61 61 61 60 61 60 59 59 59 57 56 57 55 54 52 51 53 54 54 54 56 56 56 54 54 54 54 53 52 53 57 59 60 60 60 60 60 60 60 59
60 61 60 61 61 61 59 61 60 59 58 58 58 56 55 53 53 51 49 51 52 53 54 54 56 55 55 54 54 53 52 51 52 54 57 59 60 61 61 61 61 61 61
60 60 60 61 61 60 59 61 61 60 59 58 58 57 56 54 53 52 52 50 50 53 53 54 55 55 54 54 54 53 52 50 50 52 54 56 57 58 60 61 61 61 61
59 58 58 59 59 60 60 60 60 60 59 59 58 58 57 56 54 53 52 52 51 52 53 53 54 54 54 53 53 51 53 49 49 50 51 52 54 55 56 57 58 59 60
55 55 56 56 57 57 58 59 60 59 60 59 58 58 57 57 56 55 55 53 52 50 51 53 54 56 55 56 54 53 53 50 48 48 48 50 51 53 53 54 55 56 57
56 55 55 55 56 57 58 59 59 59 59 59 59 58 57 57 57 56 55 54 53 51 50 53 54 56 57 57 56 57 56 53 48 48 47 47 48 50 51 52 52 53 54
57 56 56 55 55 56 57 57 58 58 58 58 58 58 57 57 56 56 55 55 54 53 49 51 51 52 55 56 56 56 56 57 57 49 48 48 47 46 47 48 48 49 50
57 56 56 56 55 56 57 56 56 57 57 57 58 58 57 57 56 55 55 55 54 55 53 50 52 51 51 52 53 53 52 54 55 47 43 43 43 42 42 42 43 43 43
57 57 56 55 55 56 56 55 56 55 56 57 57 57 57 56 55 55 54 54 54 54 54 52 52 53 53 53 52 53 53 53 46 42 41 41 41 41 41 41 41 41 41
58 57 56 56 55 55 55 55 55 55 54 55 55 55 56 56 55 54 54 53 53 53 53 53 52 53 53 53 53 51 51 45 44 42 40 39 39 39 39 39 39 39 39
46 47 47 45 45 44 43 50 54 53 53 53 49 46 44 44 42 46 54 53 53 53 52 52 51 51 51 47 48 44 46 45 37 37 40 39 37 37 37 37 37 37 37
41 40 39 39 39 39 37 41 48 49 50 48 43 41 39 38 36 36 36 35 36 50 52 51 50 48 38 37 38 39 41 42 40 32 37 35 35 34 35 36 35 34 33
37 36 36 35 35 35 36 37 38 39 39 39 40 39 37 35 35 34 33 33 33 33 33 41 37 34 33 33 34 37 37 36 31 28 32 32 33 32 34 34 32 32 31
34 34 34 34 33 34 34 34 34 35 34 34 35 38 35 34 33 33 32 31 31 31 30 30 30 30 31 32 33 35 35 30 29 26 27 30 30 26 31 32 31 30 30
31 32 32 32 32 32 33 33 32 32 32 32 33 33 33 32 33 34 31 30 29 30 31 30 30 30 30 30 31 32 32 32 29 21 18 27 21 21 30 30 31 32 32
29 29 30 31 32 31 32 32 31 30 30 30 31 32 33 32 33 32 30 30 27 28 28 27 26 25 26 26 24 24 21 22 25 13 17 24 19 17 18 32 26 26 21

GFSMA_sfc_dewp_102.txt.gz
Dewpoint
67 65 65 66 63 62 62 62 62 63 63 64 64 63 64 64 64 64 64 64 65 66 68 68 67 66 66 65 65 64 63 62 61 59 59 57 58 60 59 58 58 56 56
66 65 65 65 63 63 61 62 62 61 63 64 64 63 64 63 64 64 64 64 62 64 66 67 66 66 66 65 64 64 62 61 60 59 57 58 58 57 55 59 56 58 56
66 65 65 64 64 63 61 60 61 61 62 63 63 63 63 63 63 63 63 64 63 63 64 66 66 66 65 65 64 63 62 62 60 57 57 56 58 57 57 57 55 56 55
64 64 64 64 63 63 63 62 62 62 61 61 62 62 62 62 63 63 63 63 63 64 63 63 64 65 65 65 64 63 62 61 60 59 59 58 58 56 55 55 57 56 55
64 64 65 64 63 63 63 62 62 62 60 61 61 62 62 62 62 63 62 62 62 62 62 62 62 63 64 64 63 62 61 60 59 59 58 59 57 57 56 56 57 57 57
64 64 64 63 63 63 62 62 61 61 61 60 61 61 61 62 62 62 62 62 61 61 61 61 61 61 61 62 62 61 60 59 58 59 58 58 56 55 57 57 57 57 57
64 64 63 63 63 62 62 62 62 61 60 61 59 59 60 61 61 61 62 61 61 60 60 59 59 59 59 60 61 60 59 57 60 60 58 58 57 56 55 56 57 57 57
64 64 63 63 63 63 62 62 61 60 60 61 58 57 54 55 59 61 61 61 60 60 59 58 58 57 57 57 58 59 59 59 59 59 59 59 58 57 56 56 56 57 57
64 63 63 63 63 62 61 61 61 60 59 60 59 57 52 52 54 57 59 60 59 59 59 58 57 57 57 57 57 57 57 59 60 59 59 59 59 57 57 56 57 57 56
64 63 62 63 62 62 61 61 61 60 59 58 59 58 56 55 52 51 56 57 58 58 57 57 57 57 57 57 56 55 55 55 57 59 59 60 59 59 58 58 59 58 57
63 63 62 61 62 62 61 61 60 60 60 59 58 58 56 55 54 52 52 53 55 57 57 56 57 57 56 56 56 55 53 52 53 57 59 58 59 59 59 59 59 59 59
62 61 61 61 61 61 60 60 60 60 59 59 59 58 57 54 53 53 52 53 54 54 56 56 56 57 57 56 55 54 52 51 52 54 57 59 59 60 60 60 60 60 60
61 60 60 60 61 61 61 60 60 59 59 58 59 58 58 56 54 54 54 53 53 54 55 56 56 56 56 56 56 53 52 50 50 52 54 55 57 59 60 60 60 61 61
60 60 60 61 61 60 60 60 59 59 59 59 58 59 58 57 55 55 54 53 52 52 53 53 55 56 56 56 55 52 54 49 49 50 51 52 54 55 56 58 59 60 60
58 59 59 59 59 59 59 59 59 59 59 59 59 59 59 58 57 55 55 55 52 50 51 53 53 56 56 56 55 55 55 51 49 48 48 50 51 53 53 54 55 56 57
58 58 57 57 57 58 59 59 58 59 59 59 59 59 58 58 57 56 55 55 55 52 50 54 54 55 56 56 55 55 55 51 48 47 47 47 48 50 51 51 52 52 53
58 57 57 57 57 56 56 55 55 55 56 57 58 58 58 58 57 56 56 55 55 53 51 52 54 55 55 55 55 55 54 55 49 46 46 46 46 46 46 47 48 48 48
57 56 56 55 55 55 55 55 54 56 56 56 56 57 57 57 57 56 55 55 55 55 52 51 52 53 54 55 55 56 54 48 45 43 43 43 43 43 43 43 43 43 43
56 56 55 55 55 55 55 55 55 55 56 56 56 57 57 57 57 56 55 55 55 54 53 52 51 53 53 54 54 51 46 43 42 42 41 41 41 41 41 41 41 41 40
56 55 56 55 55 54 54 55 55 55 54 52 51 52 54 57 57 57 55 55 55 54 54 53 52 52 53 54 53 48 45 44 41 40 40 40 40 40 40 40 40 39 39
53 51 48 46 45 44 42 45 52 54 51 46 44 42 40 42 47 51 55 55 55 54 53 52 52 51 52 52 51 49 44 39 37 40 38 38 37 37 38 38 37 36 35
41 41 39 39 38 38 37 39 45 47 45 43 41 39 38 37 37 37 37 36 43 53 52 52 51 50 48 47 45 47 39 38 36 35 35 34 36 34 35 35 35 34 33
36 35 35 35 35 35 37 38 38 39 38 37 37 37 36 36 36 35 35 34 34 34 35 48 49 44 41 38 40 40 40 38 33 30 34 31 33 32 34 34 33 32 32
32 33 32 33 33 34 35 35 35 35 34 34 34 34 34 34 34 34 32 31 31 31 32 32 33 32 32 34 35 37 33 29 29 28 30 29 31 30 32 33 34 33 32
30 30 31 31 32 33 34 34 33 32 32 32 33 33 32 32 33 33 30 28 26 27 31 31 31 31 32 33 34 34 32 31 27 24 25 29 27 29 31 27 29 32 30
29 30 30 30 31 31 33 33 32 31 30 30 31 31 32 31 31 30 28 26 23 24 26 26 25 25 26 26 28 29 33 27 24 23 24 25 24 26 27 25 22 23 23

GFSMA_sfc_dewp_105.txt.gz
Dewpoint
69 69 69 69 69 69 68 68 68 67 67 67 67 67 66 66 66 67 67 64 64 66 67 68 68 67 66 66 66 65 64 63 62 60 60 61 60 60 60 60 59 59 58
68 68 67 68 68 68 67 67 67 67 66 66 66 66 66 66 65 64 65 65 63 64 66 68 68 67 66 66 66 65 63 63 61 59 60 60 60 59 59 59 59 58 57
67 67 67 67 67 67 67 67 66 66 66 65 65 66 65 65 65 64 64 64 64 62 63 67 67 67 66 65 65 65 64 63 62 60 58 58 59 59 58 59 58 59 57
67 67 66 66 66 66 66 66 65 64 65 64 64 65 65 65 63 63 63 64 64 64 63 64 65 66 66 66 65 64 63 62 62 59 58 58 59 58 58 58 58 57 56
66 66 66 66 65 64 65 65 64 64 64 63 63 64 64 63 62 63 62 63 63 63 63 63 63 63 64 65 65 64 63 61 60 59 59 58 58 58 56 55 57 56 56
65 66 66 66 65 64 64 64 63 63 63 63 62 62 63 63 63 63 62 63 63 63 62 63 64 64 62 64 64 64 62 61 60 59 58 59 57 58 57 56 57 57 57
64 65 66 65 64 64 63 63 63 62 61 62 61 61 61 63 63 62 63 63 63 62 62 62 64 61 62 62 63 64 62 61 59 59 59 59 59 58 58 58 56 57 57
65 65 65 64 64 63 63 63 62 61 61 61 59 58 55 57 61 62 62 63 62 62 61 61 62 61 60 59 60 61 61 60 59 58 60 60 59 58 57 56 56 57 57
65 65 65 64 63 63 63 63 63 62 59 61 61 58 54 54 56 60 61 61 62 62 62 61 61 61 60 58 58 58 57 58 59 61 61 60 59 59 58 57 57 56 57
64 65 64 64 64 63 64 63 63 62 61 59 60 60 58 57 55 54 57 59 61 61 61 60 60 60 59 57 57 54 54 54 57 60 60 61 59 59 58 58 57 57 57
64 64 64 64 64 64 63 63 63 62 61 60 59 59 57 56 56 55 54 56 57 59 60 59 59 60 58 57 57 55 53 53 54 59 60 60 60 59 58 58 58 59 58
63 64 64 64 64 63 63 64 62 62 61 61 60 60 58 55 54 54 54 55 55 56 58 58 58 59 58 57 56 54 52 51 52 55 58 58 59 59 59 59 59 60 59
63 62 63 64 64 63 63 63 62 61 61 60 59 59 59 58 57 55 56 55 55 55 56 57 58 59 58 58 57 54 53 50 50 52 54 56 57 58 59 59 60 60 60
61 63 63 63 63 63 62 63 63 62 61 60 60 60 59 59 59 57 55 55 54 54 55 55 57 57 58 58 56 52 55 50 49 50 51 53 54 55 57 58 59 59 60
62 62 63 62 62 61 62 62 61 61 62 60 60 60 59 59 60 59 57 56 55 52 52 54 55 58 58 58 56 57 57 52 49 48 49 50 52 53 54 55 55 57 58
62 61 61 61 61 61 61 61 60 61 59 59 59 59 59 60 59 59 58 58 57 54 52 55 55 56 57 57 56 57 57 52 48 47 47 48 49 50 51 52 53 54 54
60 60 60 60 60 60 60 60 60 59 59 59 59 59 59 59 59 58 59 58 57 57 54 54 55 56 56 57 57 57 57 56 53 47 46 46 46 47 48 48 49 50 50
60 59 59 58 59 58 59 58 57 57 57 57 57 58 58 58 59 58 57 56 57 56 55 52 54 55 55 57 57 57 56 52 49 44 44 44 44 44 44 44 44 44 45
58 58 58 57 57 56 56 56 56 56 57 57 57 57 57 57 57 57 57 56 56 55 55 52 52 53 54 56 55 51 48 47 44 43 42 42 42 42 42 42 41 41 41
57 57 57 56 56 55 55 55 55 56 56 55 51 48 46 46 50 57 56 56 55 55 55 53 53 53 54 55 53 46 44 44 42 41 41 40 41 41 41 40 40 40 39
56 56 53 49 48 48 45 53 55 56 51 47 45 42 40 39 39 43 56 56 55 55 54 53 52 53 53 52 50 49 44 40 40 40 39 39 39 39 39 38 38 37 36
41 41 40 39 39 39 37 39 46 49 46 44 42 40 39 38 37 36 37 36 37 54 54 53 52 52 52 52 49 47 40 38 37 39 35 34 36 34 35 36 36 36 35
35 35 35 35 35 36 36 38 39 41 39 39 39 39 37 36 36 36 35 34 34 34 35 48 52 49 47 44 46 43 42 40 35 34 34 31 33 32 34 34 34 34 34
32 32 33 33 34 34 35 35 35 35 34 34 35 35 35 34 34 33 31 30 31 32 32 33 33 32 33 35 38 40 35 30 31 30 33 29 32 31 32 34 34 33 33
31 31 31 31 32 33 34 34 33 32 32 32 32 33 32 32 32 33 31 29 28 28 30 31 31 31 32 34 36 36 34 33 29 26 27 30 30 29 27 27 32 34 32
28 28 28 29 31 31 33 32 32 31 30 30 30 31 31 30 30 29 29 27 24 25 26 26 26 26 27 27 29 31 34 30 27 26 25 26 26 29 23 25 26 28 28

GFSMA_sfc_dewp_111.txt.gz
Dewpoint
68 65 65 63 66 68 67 66 66 66 67 66 66 65 65 66 66 64 69 65 65 66 68 66 67 67 68 68 67 67 66 66 65 64 64 64 64 64 63 62 61 61 61
66 64 64 63 61 65 68 65 65 65 66 67 66 65 66 66 66 65 63 65 64 65 66 66 66 64 68 68 67 67 66 65 65 64 63 63 62 62 62 62 61 60 60
68 69 66 64 62 62 69 69 68 65 65 65 66 65 67 65 65 64 64 63 63 62 64 65 66 65 65 67 67 67 66 65 64 64 63 62 62 62 61 61 60 59 59
67 69 67 66 65 64 63 66 65 65 65 64 64 64 65 65 65 64 64 63 62 64 62 63 63 62 64 66 66 66 65 65 64 63 62 62 62 61 61 60 59 56 56
66 67 67 67 68 67 64 65 66 66 64 63 63 65 65 64 64 66 64 64 63 64 65 62 62 62 64 64 65 66 65 64 64 62 62 61 61 61 58 59 55 55 56
66 67 66 67 67 67 67 64 66 66 64 62 61 62 64 64 65 66 64 62 62 63 64 64 63 62 61 63 64 66 65 65 63 62 61 60 60 59 57 58 56 56 55
66 67 66 67 67 66 66 66 67 66 65 64 65 64 63 64 64 65 64 63 62 61 63 63 64 64 63 62 64 66 66 65 63 62 61 60 59 59 58 58 58 55 55
68 67 67 66 67 66 65 65 65 65 65 65 62 61 59 61 63 62 63 63 62 63 61 62 63 63 64 63 62 64 65 65 63 63 62 60 59 60 58 56 55 55 56
68 67 66 67 67 65 64 65 65 64 62 64 63 59 57 55 58 60 62 62 62 62 61 63 62 62 64 63 63 62 61 61 62 62 62 61 60 59 59 56 56 55 55
66 67 67 66 67 66 65 65 65 64 63 61 62 61 60 57 55 52 59 60 62 62 63 63 64 62 63 63 62 61 58 57 59 61 62 61 61 60 59 58 55 55 55
65 65 66 66 67 66 66 66 64 65 64 62 61 61 61 59 58 55 53 57 59 61 62 63 64 64 63 62 63 61 56 55 56 59 61 61 60 60 59 58 58 56 55
64 64 65 65 66 66 65 66 66 65 64 63 62 61 60 59 57 56 55 54 55 58 60 63 63 63 63 63 61 58 54 53 54 57 59 60 60 59 59 58 58 58 58
64 65 64 65 65 65 65 66 65 64 65 63 63 60 60 60 58 57 57 55 53 59 59 61 61 62 62 63 62 56 53 52 52 54 56 58 58 58 58 58 58 58 58
62 65 64 65 65 65 65 66 65 64 64 64 64 63 60 61 60 59 56 57 56 56 58 57 59 60 62 62 61 54 55 50 50 51 53 55 56 56 56 57 57 57 57
62 65 65 64 64 64 64 65 65 65 64 64 65 64 62 61 61 60 59 58 57 53 55 55 57 59 61 61 60 61 59 51 49 49 50 52 53 55 55 55 56 56 57
62 64 65 64 64 64 64 64 64 64 65 64 63 62 62 62 61 61 59 60 59 56 54 55 55 57 60 60 58 60 59 52 49 47 48 49 51 52 52 53 53 54 55
62 63 64 63 63 64 63 63 63 63 62 62 62 62 61 61 61 60 60 60 60 59 56 55 56 59 60 59 59 59 58 58 54 48 47 47 48 48 49 50 51 52 53
62 62 63 62 62 62 62 62 62 62 61 61 61 61 60 60 60 60 61 60 60 59 58 55 56 58 58 59 59 58 58 58 58 48 47 47 47 46 46 47 48 48 49
60 60 62 62 62 62 61 62 62 62 61 61 61 61 60 59 59 59 59 59 59 59 58 58 57 58 58 59 58 56 50 47 45 45 44 44 45 46 46 45 46 46 46
58 60 61 61 61 61 60 61 61 61 60 60 60 60 59 57 57 57 56 57 58 58 57 57 56 56 57 57 56 49 45 45 44 44 43 43 43 43 44 43 43 43 43
42 44 52 53 57 58 57 60 60 60 58 56 53 50 45 41 39 39 45 49 53 55 55 55 55 55 54 54 48 48 44 40 40 41 40 41 41 41 41 43 43 41 41
35 37 37 38 41 44 43 48 55 57 55 51 46 43 41 39 37 35 35 35 35 41 50 55 55 53 53 53 51 46 40 38 36 40 35 33 36 35 37 38 39 39 38
32 33 35 35 34 37 39 43 42 42 41 41 42 41 39 38 39 39 35 34 33 34 33 38 47 44 49 52 50 45 43 42 37 36 35 32 33 32 34 36 37 37 36
29 29 30 33 33 33 34 35 35 35 34 34 34 35 35 34 34 35 34 33 31 31 31 32 32 32 33 34 46 46 43 34 34 34 35 30 32 31 32 34 35 35 34
28 27 28 29 30 31 34 34 32 31 30 30 31 32 31 31 32 34 32 31 30 30 30 30 30 30 31 33 38 39 36 35 32 30 32 32 30 27 28 32 33 34 34
28 27 26 27 29 29 32 32 32 31 29 28 29 30 31 30 30 30 29 28 26 26 26 27 26 26 26 27 30 32 36 37 31 30 30 29 27 27 24 27 29 31 31

GFSMA_sfc_dewp_114.txt.gz
Dewpoint
68 68 67 67 68 68 68 67 67 67 66 66 67 65 66 66 65 66 68 65 65 67 69 68 67 67 67 67 67 67 68 68 67 67 66 66 66 65 64 63 62 61 61
67 67 66 67 67 67 67 67 65 64 66 66 66 66 65 66 66 66 67 65 65 65 66 68 67 66 66 66 64 66 66 67 66 66 66 65 65 65 63 62 62 61 60
68 67 67 66 65 67 67 67 67 66 66 66 65 66 66 66 65 66 65 65 63 63 64 65 66 66 64 63 61 64 65 66 65 65 64 64 64 63 63 62 61 60 57
67 69 67 67 67 65 67 67 66 65 65 66 65 66 66 65 65 65 65 64 64 63 62 63 64 65 64 64 63 63 66 65 65 64 64 63 63 62 62 61 60 59 58
67 67 67 67 67 67 66 66 66 65 64 64 64 65 65 64 64 65 64 64 64 63 63 62 61 62 63 64 62 64 66 65 65 64 64 63 62 62 61 61 60 58 56
66 67 66 67 66 66 66 66 64 65 64 64 63 63 64 64 64 65 64 64 63 63 63 63 62 61 61 63 64 65 66 66 65 64 63 63 62 61 61 60 59 59 58
66 66 66 68 66 65 65 65 65 65 64 65 63 62 63 63 64 64 64 64 63 62 63 62 63 62 61 61 63 64 65 67 65 63 63 62 62 61 60 58 56 56 59
66 66 66 66 67 65 64 65 66 64 64 65 61 60 58 60 62 63 63 63 62 62 62 62 63 62 62 62 62 63 63 65 66 65 63 62 61 60 58 57 56 55 55
67 66 66 66 66 65 64 63 65 64 62 63 63 59 55 54 57 61 62 62 62 62 62 61 62 62 63 62 62 61 60 61 64 64 63 61 60 60 58 57 56 56 55
60 66 65 66 66 66 64 63 65 64 62 61 63 61 59 57 55 55 59 61 61 61 62 62 62 62 62 62 62 60 58 57 60 63 63 62 61 60 59 58 57 57 58
59 63 65 66 66 66 65 63 63 64 63 61 61 61 60 59 59 56 55 57 61 61 62 62 63 62 62 62 62 60 56 56 57 60 62 62 61 60 59 58 58 58 58
57 62 63 65 65 65 65 64 64 64 62 62 61 60 60 59 57 56 55 55 57 58 61 62 62 63 62 62 61 58 55 54 55 58 59 60 61 60 59 59 58 57 58
54 59 62 64 64 65 65 65 65 64 63 62 61 61 60 59 59 57 56 55 54 57 58 60 61 62 62 62 62 57 56 53 53 55 57 58 59 59 59 58 58 58 58
51 55 61 62 64 63 64 64 64 64 64 63 62 62 60 59 59 58 56 56 54 55 56 56 59 60 62 61 60 54 59 52 52 53 54 56 56 57 57 57 57 57 57
49 53 57 62 63 64 63 64 64 64 64 63 63 62 61 61 60 59 59 59 56 52 53 56 57 59 60 61 60 58 59 51 51 50 51 53 55 55 55 55 56 56 56
48 52 54 60 64 64 64 64 64 63 63 63 62 61 61 59 61 60 59 59 57 55 52 55 56 58 59 60 58 60 60 52 49 49 49 50 52 53 53 53 54 54 55
49 51 54 59 62 63 63 64 63 62 62 62 62 62 60 57 61 60 60 60 58 58 55 55 57 58 58 58 59 59 60 57 53 48 48 48 49 50 50 51 51 52 53
55 53 56 59 61 62 62 63 62 62 62 61 61 61 60 61 60 60 60 59 58 58 56 54 56 57 57 59 59 58 58 59 57 50 48 47 47 48 48 48 49 49 49
49 57 59 59 60 61 61 63 62 62 62 62 61 60 60 60 60 60 59 59 58 58 57 55 54 56 58 59 58 57 56 48 48 48 46 46 46 46 46 46 47 47 47
41 43 53 57 59 61 62 62 62 62 61 61 60 59 58 57 57 57 56 56 55 56 57 56 56 55 56 57 58 51 46 46 44 43 43 44 45 45 45 45 45 46 46
37 39 39 40 44 46 49 59 61 61 61 56 49 44 42 40 39 42 49 44 46 50 53 54 54 54 55 54 52 51 46 41 40 41 40 41 42 42 43 44 45 45 45
31 34 36 37 36 36 38 43 56 60 54 48 43 40 39 37 36 36 35 35 34 38 43 47 53 53 54 54 53 50 41 39 37 40 35 33 37 36 38 39 41 41 41
30 30 31 34 34 35 36 39 41 44 44 45 43 40 39 39 37 35 34 33 33 33 32 34 40 35 36 40 46 47 44 43 37 36 36 32 33 32 36 37 37 37 37
27 28 28 30 31 34 36 35 35 35 35 34 34 34 34 35 36 35 32 31 30 30 30 30 30 30 31 33 36 45 43 33 34 33 35 30 32 31 32 34 36 35 35
28 27 27 27 28 30 33 34 32 31 30 30 31 32 32 32 35 35 31 29 27 27 30 30 29 29 30 32 34 39 35 35 32 32 32 31 30 27 30 31 32 34 33
29 29 28 28 29 28 31 31 31 30 28 28 29 30 32 31 32 30 29 27 25 25 25 25 25 25 26 26 29 30 34 37 32 31 32 29 27 28 24 27 31 31 31

GFSMA_sfc_dewp_117.txt.gz
Dewpoint
67 67 67 68 68 68 68 67 67 67 67 66 66 66 66 66 65 66 64 64 65 67 69 69 69 69 68 68 67 67 67 67 67 68 67 66 65 65 64 64 63 63 62
66 67 67 67 68 68 68 67 67 66 66 66 66 66 65 65 65 65 65 64 63 65 67 69 69 69 68 68 67 67 66 67 66 67 67 66 65 65 64 63 63 62 62
67 65 66 66 67 68 67 67 66 65 65 65 65 65 65 65 65 65 65 64 63 63 64 67 68 68 68 67 67 66 65 66 65 66 66 66 65 64 63 63 62 61 61
67 67 65 65 65 67 67 67 66 65 64 65 64 64 65 65 65 65 65 64 63 63 62 63 65 67 67 67 66 64 65 64 66 66 65 65 65 64 63 62 61 61 60
67 67 66 66 66 66 67 66 65 64 63 64 64 64 64 64 64 65 64 64 63 62 61 61 62 63 64 65 65 64 64 64 63 65 65 65 64 64 63 62 61 60 59
66 68 66 66 66 66 66 66 65 64 63 63 63 63 63 63 63 63 63 64 63 62 62 61 60 61 61 64 65 64 64 64 66 65 65 64 63 63 62 62 61 60 59
65 65 67 66 66 65 64 65 64 64 62 63 62 60 61 61 62 62 63 63 63 62 62 62 61 61 61 61 63 63 64 65 65 66 65 63 63 62 61 61 60 60 58
63 66 66 66 66 65 64 64 63 61 63 64 60 58 58 57 60 62 62 62 62 62 62 62 61 61 61 61 61 64 64 66 66 66 65 63 62 62 61 61 60 59 57
57 62 65 65 66 66 65 64 64 63 62 62 62 59 55 53 55 59 61 62 61 61 61 61 61 61 61 61 61 61 60 61 65 65 65 63 62 62 61 60 59 58 58
52 55 59 64 65 65 65 64 65 64 63 61 61 60 57 56 52 52 57 61 61 61 60 61 61 61 61 61 61 59 57 57 60 63 65 63 63 62 61 59 57 59 57
49 50 55 58 63 64 64 64 63 64 63 62 61 61 59 57 56 54 53 56 59 60 61 61 61 61 61 62 62 60 55 54 56 61 63 63 62 61 60 59 59 58 58
47 49 52 56 60 63 64 64 63 63 64 63 61 60 60 58 56 55 53 54 57 58 61 61 61 62 61 61 61 58 55 54 54 58 61 62 61 60 60 60 59 59 58
44 47 50 52 56 61 63 64 63 63 63 63 61 61 60 59 58 57 55 54 54 56 57 59 61 62 62 61 61 57 55 52 53 55 58 59 60 59 59 59 59 59 58
42 44 47 49 52 54 61 63 63 63 63 63 62 62 61 60 59 57 56 54 52 54 55 55 58 61 62 62 61 55 59 52 51 52 54 56 58 58 57 57 57 57 57
41 43 45 47 50 52 58 61 61 61 64 64 63 62 61 61 60 59 58 57 55 52 52 54 55 58 61 61 60 59 60 54 51 50 51 53 55 56 56 56 56 56 56
42 43 44 45 48 52 56 61 59 61 61 63 63 62 61 61 60 60 59 59 57 54 52 55 56 57 59 59 58 59 58 53 50 49 49 51 52 54 54 54 54 54 55
42 44 46 48 48 50 53 61 60 59 59 61 62 62 61 60 59 59 58 57 59 58 55 54 56 56 56 57 57 58 58 58 54 48 48 49 50 50 51 51 51 52 53
40 43 47 50 50 50 53 60 61 60 60 61 61 61 60 59 58 57 58 57 58 59 56 53 54 55 55 57 57 58 58 59 58 49 48 48 49 49 49 49 49 49 50
38 41 42 47 52 52 54 59 60 61 61 60 61 61 60 59 57 58 59 59 59 59 58 55 54 54 54 57 56 57 56 53 53 49 47 46 47 48 48 48 48 48 48
35 36 40 40 44 47 54 59 59 58 59 61 60 61 61 60 57 58 59 59 58 58 57 57 55 55 56 56 57 53 49 47 46 45 45 46 47 47 47 47 47 47 47
33 33 35 37 38 38 42 49 56 58 59 57 51 47 46 47 50 53 55 52 54 53 54 54 54 54 54 54 54 52 52 42 40 42 40 39 43 44 45 45 47 46 46
31 32 31 33 34 35 37 41 51 58 52 47 42 39 39 39 39 38 38 36 40 48 49 50 52 52 52 52 53 49 42 40 41 40 36 34 37 36 38 41 43 43 43
29 29 30 31 31 33 34 35 36 37 37 40 42 43 39 38 35 34 34 33 33 33 33 39 42 35 37 35 36 46 44 42 39 35 35 32 33 32 35 38 40 40 40
28 29 28 29 29 31 33 33 32 33 32 33 34 36 38 36 36 34 32 30 29 30 30 30 30 29 31 32 35 40 41 33 34 33 35 31 32 30 32 34 37 37 37
27 27 27 29 29 29 31 32 31 30 30 31 31 32 33 31 34 33 30 27 27 27 30 30 30 29 29 31 33 38 35 36 32 32 33 31 30 28 30 31 33 35 35
26 26 25 26 29 29 32 31 29 29 28 28 29 30 32 31 31 31 28 27 24 24 25 25 26 26 26 27 29 29 33 35 31 31 32 29 28 28 25 28 31 31 32

GFSMA_sfc_dewp_123.txt.gz
Dewpoint
67 68 68 68 67 67 68 68 68 68 67 67 66 65 65 65 65 65 64 64 65 67 69 68 69 69 70 69 68 68 67 67 67 67 67 65 65 66 66 66 65 65 64
68 68 68 68 67 67 67 67 67 67 67 67 66 65 65 65 65 65 64 64 63 64 66 67 69 70 69 69 68 68 67 67 67 67 66 65 65 66 66 65 65 65 64
68 67 67 67 67 68 67 67 67 67 67 66 65 65 65 65 65 64 64 64 63 62 63 66 68 69 69 69 68 68 67 67 66 67 66 65 65 65 65 65 65 64 64
68 66 66 66 67 66 67 66 67 66 66 65 65 65 65 65 65 64 64 64 63 63 62 63 65 67 68 69 68 68 68 67 66 66 66 65 65 64 65 64 64 63 63
64 63 62 66 65 65 66 66 66 66 65 65 65 65 64 64 64 64 64 63 63 62 61 62 62 63 65 67 68 68 67 67 66 65 65 66 65 65 64 64 63 63 63
59 62 61 61 62 64 64 65 65 65 65 65 64 63 63 64 64 64 64 64 63 62 61 61 61 62 62 65 66 68 67 67 66 65 65 66 65 65 64 63 63 63 63
52 54 59 60 63 62 62 64 65 64 63 62 61 61 60 61 62 63 64 63 62 62 61 61 60 61 62 63 65 66 66 66 66 66 66 65 65 65 64 63 63 62 62
49 50 52 56 59 60 63 63 64 63 63 63 61 59 58 59 60 61 62 62 62 62 61 60 60 59 61 62 62 64 65 66 66 65 65 64 64 64 64 63 63 62 62
45 47 49 51 53 56 58 60 63 62 61 62 63 59 55 55 56 59 61 62 61 62 62 61 60 59 59 60 60 60 60 61 64 65 64 64 64 64 64 63 63 62 61
42 45 47 49 50 52 54 56 60 62 61 58 62 62 61 58 55 53 59 61 61 61 62 62 61 60 60 60 59 58 57 56 58 62 63 64 64 65 64 64 63 62 61
40 41 44 46 47 49 51 54 56 59 63 60 60 59 59 59 57 54 53 57 60 61 62 62 62 61 60 60 60 59 55 54 55 58 62 63 63 63 64 64 63 62 61
39 40 41 42 43 45 47 49 53 55 60 62 60 59 58 56 56 55 54 54 57 59 61 61 61 61 61 61 60 58 56 53 53 55 59 61 62 64 64 64 63 62 61
37 38 39 40 41 42 43 45 47 49 51 60 60 59 58 57 57 56 56 55 55 56 58 60 60 61 61 61 60 57 55 51 51 53 56 59 61 61 62 62 62 62 61
36 37 39 40 42 43 43 43 44 47 50 53 61 60 59 59 58 57 55 55 52 54 54 56 60 60 61 61 60 55 58 51 50 51 53 56 58 59 59 60 61 60 60
36 37 38 40 41 42 43 44 43 44 47 51 54 61 59 59 60 59 58 57 55 52 53 54 56 59 61 61 59 60 59 52 50 49 50 52 55 56 56 58 58 58 59
35 36 37 38 39 40 42 43 44 45 46 49 53 58 60 60 60 60 60 58 58 55 52 55 55 57 59 60 59 60 58 53 49 48 48 50 52 54 54 55 56 56 57
33 34 35 36 37 38 40 42 44 45 45 47 51 54 59 60 60 60 60 59 58 58 55 55 55 55 59 59 59 60 59 58 54 48 48 48 49 50 51 52 53 54 55
32 33 34 34 36 37 39 41 43 45 48 49 49 51 55 60 59 60 60 59 59 58 57 55 53 54 54 58 58 57 58 59 58 49 47 47 47 48 48 49 49 50 52
31 32 32 33 33 35 36 38 40 42 45 49 50 51 53 58 59 59 59 59 59 58 57 56 54 53 54 56 56 57 57 57 55 49 46 45 46 47 47 47 47 49 49
29 30 31 32 32 33 34 35 37 40 43 51 51 52 53 57 58 58 58 59 59 58 58 57 55 53 54 55 55 54 52 52 50 47 44 43 45 45 45 45 45 46 47
28 28 29 31 31 32 33 34 38 40 43 51 51 49 47 47 49 56 58 59 58 57 57 56 55 53 52 54 55 54 54 48 44 45 43 38 40 40 40 41 44 45 45
27 27 28 30 30 31 34 34 35 38 38 40 40 39 39 39 42 43 42 43 50 56 55 55 54 54 54 54 55 54 48 46 46 41 40 35 37 34 36 37 39 40 42
25 26 27 29 29 31 33 33 32 32 32 33 33 34 34 34 38 40 38 36 35 35 37 50 54 53 51 48 49 48 47 47 45 37 38 32 33 31 33 35 37 39 41
24 25 25 27 28 30 32 33 33 31 30 31 31 31 32 33 33 33 32 31 30 33 32 32 33 32 32 34 39 45 45 34 34 33 35 33 31 29 32 33 36 37 38
23 24 25 25 27 28 32 31 30 29 28 29 30 31 30 30 32 34 31 29 29 28 30 31 31 31 32 33 35 38 35 38 33 32 33 32 29 28 29 29 32 35 36
22 24 23 24 26 25 31 30 28 27 26 26 27 29 31 31 32 31 29 29 27 27 28 29 29 29 29 29 31 31 34 36 33 32 33 30 28 29 25 29 30 31 32